GFSGBSN_700_spd_000.txt.gz
Wind_Speed
1 0 1 1 1 5 4 2 6 8 10 12 14 16 19 21 23 23 22 22 22 22 21 19 18 17 17 18 22 19 20 19 20 22 22 19 10 8 8 3 1 5 7 6 6 9 16
3 3 3 5 6 7 9 9 10 12 14 15 18 19 22 23 23 23 22 22 23 21 20 19 19 20 20 18 20 18 14 16 17 14 15 15 9 7 5 3 3 4 2 5 5 7 12
7 6 8 8 9 10 11 13 14 15 16 18 19 21 23 24 23 22 22 21 22 22 22 19 16 16 17 13 17 17 15 16 14 15 18 14 8 10 10 6 5 7 7 8 10 4 6
10 9 11 10 10 12 13 15 16 17 18 19 20 21 23 23 22 21 21 21 21 19 17 16 16 15 12 9 10 15 16 15 16 19 16 13 9 7 7 5 2 6 8 10 17 3 5
12 12 12 12 11 12 14 15 15 17 18 18 18 20 22 22 21 19 19 19 19 18 16 14 13 11 10 9 8 10 12 14 15 16 13 10 7 6 8 8 4 7 5 13 10 7 6
13 13 14 12 12 12 13 13 14 16 17 16 17 18 20 22 22 22 21 21 20 18 14 11 9 7 8 5 7 6 8 9 12 11 10 4 2 5 7 7 6 10 10 9 1 7 15
13 13 13 13 12 11 12 12 12 14 16 16 17 18 19 21 22 24 24 21 17 13 10 6 4 5 3 4 2 4 5 6 7 6 5 2 4 4 7 4 3 7 10 10 10 12 20
11 11 12 12 12 11 11 10 11 12 14 15 16 17 19 21 23 21 18 17 12 9 6 6 5 4 2 1 3 7 3 1 2 3 1 3 3 3 7 5 5 10 14 10 14 15 15
10 9 9 10 10 11 11 10 10 12 13 15 15 16 17 18 16 15 9 12 11 12 10 6 6 4 4 2 4 5 4 1 5 1 1 3 1 6 10 9 10 11 14 14 17 19 3
9 8 7 7 8 8 8 9 9 9 10 11 12 12 14 14 12 9 11 12 11 9 5 4 5 4 6 3 5 8 6 1 2 2 2 2 6 12 7 10 12 13 12 14 18 13 5
9 7 6 6 6 6 6 7 8 9 9 9 9 9 10 9 9 11 13 11 7 6 4 3 5 4 6 10 5 7 8 4 2 2 2 2 6 12 12 10 10 18 19 19 12 5 4
8 6 5 5 5 5 4 5 6 7 8 9 8 8 9 9 9 13 10 6 7 3 2 3 4 3 3 8 9 3 7 7 5 1 3 7 6 7 11 10 14 14 18 8 1 2 2
9 7 5 5 5 4 3 3 4 6 6 7 8 8 7 7 9 10 8 11 7 4 4 3 3 2 3 6 7 5 9 9 10 4 7 5 2 4 10 18 6 18 20 8 4 4 4
11 9 7 5 4 4 4 4 3 5 6 7 7 8 7 7 9 8 9 8 4 8 7 4 4 5 6 3 8 5 6 9 9 10 6 5 4 9 12 15 13 13 18 5 1 0 8
14 11 8 6 4 3 4 4 4 5 6 6 7 7 7 8 8 8 9 4 5 5 3 4 3 3 4 5 3 2 8 9 13 14 7 8 2 7 11 11 8 7 14 7 3 3 2
16 13 10 8 6 4 4 5 5 6 6 7 8 7 7 8 9 9 9 7 4 4 3 5 5 5 5 2 1 3 5 6 8 13 11 6 8 6 10 2 6 6 10 5 7 2 3
17 15 12 10 8 7 6 5 6 7 8 10 8 10 10 11 11 9 9 6 3 5 6 6 5 3 1 2 1 4 2 3 4 11 10 10 6 9 5 3 6 5 6 8 6 5 3
19 18 15 13 11 9 7 7 7 9 9 9 10 10 12 12 11 8 7 6 6 6 5 4 4 4 3 0 3 2 1 5 9 13 11 10 5 12 9 7 6 2 10 20 9 7 21
22 19 17 15 13 11 9 8 8 9 9 6 5 9 10 9 8 7 7 5 4 3 3 4 4 3 3 2 2 3 2 6 8 11 12 11 6 7 1 4 3 14 19 25 26 14 15
24 21 19 17 15 13 12 10 9 10 9 7 9 9 9 7 7 8 8 7 5 4 3 2 2 2 3 3 2 3 5 4 7 14 16 14 10 10 10 13 15 23 27 27 27 20 25
25 24 21 19 17 16 14 12 10 9 10 9 7 9 11 10 9 7 5 4 1 2 3 3 3 2 3 4 7 10 11 10 13 15 15 14 17 18 23 20 20 29 31 28 31 27 28
27 25 23 21 19 18 17 14 12 11 9 8 8 8 9 10 9 9 7 7 5 4 5 5 6 6 8 10 11 14 17 18 22 18 19 21 22 20 28 26 22 31 30 18 15 17 27
29 27 25 23 21 20 18 17 15 13 10 9 8 7 7 7 8 7 8 10 9 8 7 10 12 14 13 14 18 19 20 20 20 22 22 26 21 13 11 18 21 26 11 19 23 27 26
31 30 28 26 23 21 20 19 17 15 13 12 10 9 8 7 7 7 10 10 10 12 12 11 14 16 16 19 19 22 23 20 16 9 15 19 15 16 15 20 4 18 25 26 26 21 26
33 32 29 27 25 23 22 20 19 17 16 15 13 12 11 10 9 9 11 13 13 14 14 14 17 19 20 17 23 21 21 8 12 10 10 11 13 14 8 9 22 30 18 14 22 27 29
33 32 30 29 27 25 24 22 20 19 18 17 16 15 14 12 12 11 11 12 14 15 15 16 15 18 19 20 17 11 9 16 4 9 11 16 17 17 22 12 6 26 26 21 16 31 21
34 32 31 30 28 27 26 25 22 21 19 18 17 16 16 14 15 13 12 13 14 14 16 17 18 18 19 20 21 20 17 16 10 12 15 16 17 23 27 24 18 34 25 16 15 32 49
34 33 32 30 30 28 27 26 24 22 21 20 19 18 18 17 16 15 15 14 15 15 15 17 19 22 22 19 16 18 16 15 17 21 21 21 16 22 20 13 15 18 16 28 45 56 51
35 34 33 31 30 29 28 27 26 24 22 22 22 21 21 20 18 16 16 15 15 18 18 20 23 24 16 18 22 21 24 30 33 32 33 28 28 31 30 35 40 44 43 40 40 42 44

GFSGBSN_700_spd_003.txt.gz
Wind_Speed
6 5 4 5 3 2 1 4 7 7 8 11 13 15 16 17 20 23 22 21 20 19 18 16 17 19 22 19 22 21 21 20 18 16 12 13 9 7 6 7 9 9 9 7 6 4 7
3 1 2 1 1 3 4 6 8 10 10 12 15 17 19 22 24 24 22 22 21 20 19 19 17 17 17 18 18 16 16 15 13 15 13 14 8 8 6 7 5 4 2 4 4 2 4
3 4 4 4 6 8 7 9 11 13 16 18 19 20 22 24 24 23 22 23 22 19 20 20 19 21 20 16 17 16 14 16 15 13 13 16 11 8 7 6 3 2 2 3 7 5 2
6 6 7 8 9 11 12 13 14 16 18 20 21 22 23 22 21 21 21 21 19 20 20 17 17 16 15 12 13 16 18 17 18 17 15 12 10 6 6 1 4 3 2 8 6 6 1
8 8 10 10 11 13 14 15 16 18 20 21 21 22 22 21 21 20 20 20 20 18 16 16 14 15 12 12 13 13 13 14 16 13 11 8 7 5 4 5 3 3 4 8 1 2 3
10 10 11 11 11 12 13 14 15 18 19 19 20 21 21 21 21 20 20 20 19 17 15 13 10 9 9 10 11 12 11 13 15 11 9 8 2 3 5 6 1 4 9 8 5 9 14
11 11 11 11 11 11 12 12 13 16 17 17 17 18 19 20 20 21 22 23 18 13 10 7 7 6 4 7 6 5 9 12 12 11 11 5 1 3 7 9 6 7 11 13 7 9 20
11 11 11 11 10 9 10 11 12 13 15 16 18 18 19 20 21 20 18 18 15 12 10 10 9 6 6 4 4 3 5 6 10 8 6 2 1 2 8 8 7 8 11 15 11 12 15
10 9 9 9 9 9 9 10 10 12 13 15 15 16 17 17 17 16 16 13 13 11 11 11 9 7 6 3 5 4 2 2 5 4 3 3 3 7 7 7 9 9 10 13 16 17 5
10 9 8 7 7 7 8 10 9 10 12 13 14 15 15 16 15 13 12 12 13 13 6 6 5 5 7 2 5 6 4 1 1 2 3 3 4 8 6 9 12 11 14 15 15 13 2
11 9 8 7 5 5 6 9 10 10 10 11 12 13 13 13 11 10 13 11 10 8 4 3 7 5 8 9 3 5 6 4 2 3 2 2 2 6 7 11 15 16 14 15 13 7 4
11 10 8 7 5 5 5 6 9 11 11 11 11 12 12 11 11 13 12 8 9 3 3 4 4 4 7 7 4 4 7 4 4 3 2 1 1 3 6 12 8 12 12 4 1 2 1
11 9 8 6 5 5 5 6 7 9 11 12 12 12 12 12 14 13 9 11 5 5 7 5 5 3 6 6 4 6 8 6 6 2 3 1 1 3 8 13 4 14 9 3 3 3 4
11 8 7 5 5 5 5 5 7 8 9 10 11 12 11 11 13 11 11 7 3 9 7 6 5 5 7 6 5 5 8 9 11 11 4 5 2 6 10 10 8 12 13 5 3 1 7
13 9 7 5 5 5 5 4 6 8 9 10 10 10 11 12 11 10 10 4 5 10 6 7 7 5 5 3 1 3 8 10 12 16 9 7 3 6 7 9 5 4 7 7 1 1 3
15 11 9 8 6 5 5 5 6 7 9 10 11 10 9 11 11 10 9 6 7 8 5 8 7 5 7 3 1 1 4 6 7 13 11 8 4 7 7 5 4 4 4 4 6 2 3
17 13 11 8 7 6 6 5 6 7 9 10 10 11 11 11 11 10 8 7 7 7 8 8 7 6 6 4 3 2 0 3 5 11 10 8 5 7 0 4 4 2 2 4 2 2 3
18 16 13 11 10 8 7 6 6 9 10 11 10 12 13 13 11 10 8 9 8 7 7 7 6 5 4 3 4 2 1 3 8 8 11 10 2 7 4 2 5 6 6 12 4 5 12
21 18 17 15 12 11 9 9 7 9 11 10 10 13 14 12 9 10 11 9 8 7 6 6 6 5 5 3 2 3 2 4 7 7 11 11 5 5 2 6 10 15 21 13 21 18 14
24 20 19 18 15 13 12 10 11 9 9 8 12 12 12 9 10 8 10 10 8 7 6 5 6 4 3 3 3 4 6 7 9 10 14 15 9 10 10 12 19 28 27 26 25 18 19
26 24 22 20 18 17 15 13 11 12 11 10 9 12 13 12 12 11 10 10 8 7 5 5 4 4 2 2 5 8 10 10 12 16 14 11 17 21 22 21 22 29 30 27 29 28 24
27 25 23 22 21 19 17 14 12 11 11 11 11 12 11 11 10 11 8 8 5 5 5 5 5 7 8 10 10 12 14 14 14 13 12 17 19 21 30 22 15 29 30 16 15 21 24
29 26 24 23 22 21 20 17 15 13 11 9 10 12 12 12 12 11 12 10 9 8 7 7 8 10 11 11 15 16 15 15 17 18 19 22 19 9 10 19 18 23 5 21 24 28 33
29 28 26 25 24 23 21 19 18 15 13 12 10 11 11 11 12 12 12 12 11 11 10 11 11 10 12 17 19 18 21 17 14 11 15 18 18 15 14 19 3 17 26 30 28 23 25
31 29 28 27 25 24 22 21 20 17 15 14 13 12 11 11 12 13 13 13 12 12 12 12 13 15 18 17 19 19 20 3 10 13 8 12 14 14 11 13 22 34 22 22 24 30 34
34 31 30 29 27 26 24 23 23 21 19 17 16 14 13 12 13 13 15 16 16 15 16 17 18 17 17 17 17 11 7 16 6 8 15 14 16 19 22 12 6 27 27 24 25 33 21
34 33 32 31 30 28 26 25 24 23 21 20 18 16 15 14 14 12 15 16 16 16 16 16 17 17 17 18 20 18 17 20 10 14 14 17 17 22 29 29 21 28 23 21 17 19 35
34 33 32 32 30 29 28 26 25 25 24 22 20 19 17 17 15 13 14 15 16 16 17 16 14 17 18 18 17 17 14 15 19 22 21 21 17 25 18 12 15 22 26 30 42 48 43
40 35 33 32 31 30 29 27 26 25 24 23 22 21 19 18 15 14 16 17 18 19 19 19 21 19 17 19 18 18 21 29 34 34 37 28 31 30 22 25 44 46 47 37 36 38 41

GFSGBSN_700_spd_006.txt.gz
Wind_Speed
11 11 9 8 7 5 4 4 7 8 9 10 11 12 14 15 17 18 20 20 19 17 14 14 17 21 22 20 14 18 16 14 14 9 6 8 5 4 3 9 15 11 8 5 3 3 3
7 8 5 4 3 1 2 5 6 8 10 13 14 15 16 18 18 20 20 19 18 17 15 13 14 18 19 9 14 16 14 13 11 9 6 7 9 11 11 12 8 6 3 3 1 3 1
3 3 2 2 2 5 7 8 10 12 13 14 16 18 19 19 21 22 21 20 19 16 14 14 16 17 16 14 15 14 12 12 10 11 8 11 12 10 9 8 5 4 2 2 2 2 5
1 2 3 5 5 7 9 13 14 15 17 18 18 19 20 22 22 20 20 19 16 14 14 14 16 15 13 11 11 11 14 13 11 11 11 11 8 5 3 3 3 2 1 1 3 2 3
4 5 6 8 8 9 11 13 16 17 18 19 19 20 21 21 20 20 20 17 15 15 14 14 14 13 10 11 11 12 12 12 12 13 14 9 6 3 5 3 3 1 1 5 3 2 4
8 7 8 9 10 11 12 14 15 17 18 18 19 20 20 20 20 19 17 18 17 14 15 15 11 8 9 10 11 11 11 13 13 9 6 4 2 2 5 7 1 5 7 9 8 13 13
9 8 9 10 10 11 12 13 14 15 16 17 18 18 19 20 20 20 21 19 18 15 12 7 9 7 9 7 5 5 7 10 12 9 7 4 2 4 7 8 6 7 10 13 12 11 18
9 9 9 10 10 10 10 11 13 14 15 16 16 17 17 18 18 17 17 16 14 13 11 10 10 9 9 6 5 3 5 8 10 8 6 4 1 4 6 7 7 9 11 12 9 11 15
10 9 10 10 9 8 9 9 11 13 14 15 16 16 15 13 13 13 15 13 12 10 12 12 12 10 7 5 5 4 2 4 5 3 2 2 4 6 4 5 7 9 7 13 14 14 7
9 9 9 10 10 8 7 8 9 11 13 14 13 13 13 13 14 13 12 10 12 13 7 6 5 8 6 3 5 8 5 2 1 2 6 5 2 4 6 9 12 11 12 14 13 10 1
10 9 9 10 9 8 8 8 9 10 11 12 13 13 14 15 14 11 12 10 12 9 4 5 9 6 8 4 3 7 6 4 3 3 3 3 1 4 7 9 12 10 13 15 11 5 2
11 10 9 9 9 8 8 8 9 10 11 11 12 13 14 13 13 12 13 11 11 4 4 5 6 7 4 8 7 8 7 3 3 2 1 1 3 3 4 10 11 13 13 5 3 2 2
13 11 9 9 8 8 8 8 9 10 11 12 13 14 14 14 15 15 12 12 5 3 8 7 6 6 6 7 6 7 9 3 3 2 2 1 2 3 6 9 5 10 7 3 3 4 3
14 12 10 10 8 8 8 9 10 11 12 13 14 14 14 14 16 12 13 8 3 10 7 8 8 6 5 4 6 7 7 10 11 7 4 4 1 4 6 9 7 10 10 5 2 1 6
15 12 10 10 9 9 8 9 10 11 12 12 13 13 13 15 14 12 12 3 5 11 10 9 10 6 4 2 1 4 8 10 10 13 6 6 2 4 8 3 4 4 5 6 1 2 3
15 13 11 10 9 9 9 10 10 11 12 12 12 12 12 14 13 12 10 5 10 10 10 8 7 4 5 3 1 2 4 5 6 11 9 7 1 5 3 2 3 2 1 2 4 2 3
17 14 12 11 10 9 9 9 11 11 12 13 12 12 12 13 11 11 8 7 10 10 8 8 6 5 6 3 2 1 1 3 6 8 8 7 3 4 2 3 2 2 2 1 2 2 3
19 16 13 12 11 10 8 8 9 11 12 13 13 12 14 13 12 10 8 10 9 8 8 6 6 4 5 3 3 2 2 2 4 6 9 10 3 6 7 5 3 5 4 7 2 2 8
21 19 16 13 12 11 10 8 9 11 12 11 11 12 14 13 10 11 10 11 10 8 7 7 6 5 4 4 2 3 3 4 6 9 10 12 5 6 5 4 5 8 12 20 16 15 12
23 20 18 16 14 13 12 11 10 12 11 11 11 12 13 12 9 9 12 11 10 9 7 6 6 5 4 3 2 2 4 5 10 11 13 15 6 6 7 14 20 26 24 26 25 17 17
26 23 20 19 17 15 14 13 12 11 10 10 11 11 14 13 12 11 11 11 10 9 6 5 4 3 1 1 3 5 7 8 11 14 13 9 11 15 19 18 20 25 26 25 24 28 25
29 25 23 21 20 18 16 15 13 12 12 11 9 10 13 13 13 14 11 11 9 7 5 4 3 3 4 5 7 10 12 12 9 10 12 17 14 20 25 18 16 30 31 20 8 20 27
30 27 25 23 21 19 17 16 14 12 11 11 11 10 12 13 13 13 12 10 9 7 6 5 4 4 6 6 9 13 13 10 14 18 16 17 16 14 17 21 20 23 5 12 25 22 24
31 29 27 25 22 20 19 18 16 15 13 11 11 11 12 13 14 13 12 10 10 8 7 7 7 8 8 11 14 15 13 11 10 12 11 14 15 14 13 19 2 17 18 29 26 20 28
32 30 28 26 23 21 20 19 18 16 15 14 13 12 12 13 13 14 13 13 12 11 10 9 9 10 12 14 16 11 11 4 9 13 12 9 14 13 10 11 21 32 23 20 29 33 28
32 31 29 28 26 24 21 20 19 18 17 16 15 14 13 12 13 13 14 14 14 12 12 12 12 14 15 15 14 6 4 13 5 10 15 19 15 18 17 9 5 23 25 23 23 32 18
34 32 31 28 26 25 23 22 21 20 20 19 19 17 16 14 13 13 16 15 15 15 16 15 16 16 17 17 15 12 10 14 8 11 17 17 18 23 26 20 22 27 17 16 16 21 33
34 34 31 29 27 26 25 24 23 22 21 21 20 19 18 18 16 15 17 17 17 17 17 16 17 20 18 17 12 11 10 12 16 19 20 22 18 25 16 10 11 6 20 31 38 44 45
36 35 31 30 30 28 27 26 24 23 23 22 22 21 20 19 16 17 18 18 18 18 18 20 22 21 14 13 11 11 15 22 25 28 30 23 26 23 21 24 41 46 47 32 38 41 41

GFSGBSN_700_spd_009.txt.gz
Wind_Speed
12 11 11 11 10 8 8 8 6 6 6 8 10 12 14 14 15 16 18 19 20 18 18 18 20 20 18 16 10 16 15 12 10 10 9 8 7 4 4 17 17 13 10 9 6 6 5
8 7 7 6 6 3 3 4 4 5 7 10 12 13 14 16 17 19 21 20 19 16 15 16 20 20 17 14 12 17 15 12 10 7 6 6 7 6 16 16 11 9 6 3 2 2 2
4 3 3 2 0 2 3 4 5 8 10 12 14 15 17 19 21 23 21 20 18 15 13 15 17 18 18 9 13 13 13 11 10 5 6 10 11 9 12 9 7 7 5 2 3 5 6
2 1 1 2 4 7 8 9 11 13 14 17 18 19 20 22 22 21 20 18 15 13 12 12 14 15 14 7 9 11 11 10 6 6 8 9 7 4 5 4 4 4 3 1 2 2 5
4 3 3 5 8 10 12 13 15 17 18 19 19 21 22 22 20 20 19 17 13 13 13 14 12 10 7 8 8 8 9 9 7 8 8 7 4 3 4 4 3 1 1 1 4 3 5
7 7 6 8 9 12 14 15 17 18 19 20 21 21 21 20 20 20 19 16 15 15 16 13 12 8 9 7 8 8 9 10 9 9 6 3 2 1 3 2 3 0 1 3 5 8 10
8 8 8 9 10 12 13 15 16 18 19 20 20 19 19 19 20 21 20 20 17 15 10 11 11 11 10 8 7 8 8 10 10 7 4 2 2 1 2 4 2 2 5 7 8 6 10
10 9 9 10 10 11 12 13 14 15 16 17 17 17 18 18 18 18 19 18 15 16 16 14 14 12 10 8 6 4 4 7 8 6 4 5 2 1 2 3 4 6 6 7 5 7 10
10 10 10 10 10 11 11 13 13 14 15 16 16 16 15 16 16 17 16 15 14 13 17 17 13 10 10 8 7 6 3 4 6 5 3 5 5 3 2 2 4 7 5 10 12 11 6
11 10 10 10 10 11 11 12 13 13 14 15 15 14 15 16 16 17 17 14 13 13 8 7 6 10 4 6 8 8 5 3 6 5 7 4 3 0 4 7 8 8 9 12 13 7 2
12 11 11 10 10 10 11 11 11 12 14 15 14 14 14 16 16 16 14 13 15 8 4 6 10 5 8 3 5 8 5 5 4 5 3 3 2 4 6 7 11 7 14 13 8 4 5
14 12 11 10 10 10 11 11 12 12 13 14 15 15 16 16 14 13 13 12 12 4 4 5 6 5 4 8 8 9 5 5 6 5 4 2 2 3 5 10 10 12 12 3 3 4 3
15 13 11 11 10 10 12 12 12 12 13 14 15 15 16 15 13 13 13 13 7 3 12 9 9 6 6 8 8 8 8 2 2 2 0 1 1 2 7 7 5 9 6 1 1 2 1
16 14 12 11 10 9 12 13 13 13 14 15 16 16 14 14 17 16 15 11 4 12 9 11 11 7 4 6 8 9 8 10 9 4 4 3 1 3 5 8 6 11 10 4 1 2 5
17 15 13 11 11 10 11 13 14 14 14 15 15 15 15 18 17 16 13 4 6 14 15 14 12 8 5 4 4 4 9 10 11 10 4 4 2 3 6 3 5 5 5 6 3 4 3
18 16 14 12 11 11 11 14 15 15 16 15 14 14 14 18 15 14 11 6 13 13 14 13 8 6 5 5 2 3 4 6 7 8 6 5 1 2 2 1 3 3 3 3 4 2 3
20 17 15 13 12 11 11 13 15 16 16 15 15 14 16 16 14 13 10 7 15 13 12 11 8 6 6 5 2 3 4 3 4 5 7 7 3 2 2 3 3 2 2 1 2 1 2
21 18 16 15 13 12 11 13 14 16 16 16 14 12 15 15 14 12 9 11 12 12 10 8 8 6 6 5 3 3 3 1 3 5 6 9 2 3 5 2 1 2 4 5 2 3 6
23 19 17 16 14 13 11 13 14 15 15 15 14 12 15 15 13 13 12 12 12 11 10 9 8 7 6 5 3 3 2 1 2 6 7 10 4 4 1 3 5 5 10 15 10 9 12
25 22 19 17 16 14 13 12 14 14 14 14 12 13 16 15 10 10 12 12 12 11 8 8 7 7 6 5 4 4 2 3 6 9 10 11 5 5 7 9 15 21 20 18 15 11 14
26 23 22 19 17 17 15 14 14 15 13 13 12 12 17 16 12 12 13 12 12 11 8 9 8 6 6 5 4 4 4 5 9 11 9 7 9 13 14 15 17 21 22 21 23 25 18
29 25 22 21 20 19 17 16 14 13 12 12 12 10 15 15 15 14 13 13 11 10 10 9 7 7 6 4 4 3 5 6 6 7 11 16 11 15 20 12 14 27 30 17 5 9 18
31 28 25 22 22 21 19 17 15 13 13 12 11 10 13 14 15 15 14 13 12 10 8 7 6 6 4 3 3 6 6 5 8 12 13 15 10 11 11 13 18 22 1 12 18 25 23
33 30 27 25 23 22 20 18 16 14 13 13 13 12 13 14 14 14 12 10 9 9 7 7 6 5 4 5 7 8 5 5 5 8 10 13 14 12 11 16 2 15 22 28 27 16 22
34 31 28 26 25 23 21 20 18 16 14 13 13 15 15 13 13 13 12 11 10 10 8 7 6 5 6 7 9 6 5 3 7 7 10 9 11 12 6 7 18 27 12 16 19 30 23
34 33 30 28 26 24 23 21 20 18 16 15 14 13 14 13 13 13 12 11 11 11 10 9 8 8 9 10 9 3 2 6 4 9 10 14 15 17 12 7 5 16 22 25 23 25 16
32 32 30 28 27 25 24 22 20 19 17 17 16 15 14 13 12 12 12 11 11 13 11 9 10 11 11 12 12 9 8 11 6 6 9 16 19 20 17 12 18 21 15 14 12 18 32
32 31 29 28 27 26 25 23 21 20 19 18 17 16 15 14 13 13 13 14 14 14 13 12 11 13 13 12 9 9 8 10 11 12 18 24 16 20 11 8 9 10 24 33 39 44 34
34 32 30 29 29 27 25 24 22 21 20 20 18 17 16 16 13 16 17 16 18 18 17 16 16 15 9 9 7 8 12 17 19 20 21 19 17 17 16 24 29 35 35 35 36 40 35

GFSGBSN_700_spd_012.txt.gz
Wind_Speed
14 14 15 14 13 13 12 10 7 7 8 10 10 12 12 13 15 16 18 20 20 19 19 19 19 19 16 14 12 17 15 13 14 12 11 10 9 7 8 15 15 12 12 12 9 8 7
11 12 12 10 9 9 7 6 3 5 7 10 11 12 14 16 17 19 21 22 20 20 18 18 20 18 16 9 11 17 16 13 12 9 7 8 10 8 15 19 11 12 9 6 5 4 5
8 10 7 6 5 5 3 2 2 4 7 10 13 16 17 19 20 22 23 22 20 16 15 17 18 16 16 11 10 16 13 11 9 6 6 8 11 14 18 12 11 10 6 4 3 8 6
7 7 4 3 1 2 2 4 6 9 12 15 17 18 20 21 23 23 22 20 15 13 13 15 16 16 12 9 11 13 12 10 7 8 9 11 11 10 11 10 10 8 5 5 2 4 4
6 6 5 5 5 6 7 9 12 14 16 17 20 22 23 24 23 23 22 17 13 13 15 15 14 11 9 7 8 8 10 9 9 9 10 8 6 4 6 6 5 4 4 3 3 4 3
7 7 7 8 8 9 11 13 16 18 19 21 22 24 24 24 24 23 21 17 17 17 16 14 13 7 7 6 7 8 10 11 11 10 8 4 4 4 4 3 3 3 2 1 2 5 7
9 9 9 10 11 13 13 16 17 18 20 21 23 24 24 23 24 23 21 21 19 18 14 10 10 10 9 9 8 8 10 11 10 8 6 4 3 4 2 2 4 2 1 2 4 7 2
11 11 11 11 12 14 15 17 18 19 19 20 21 21 22 22 23 21 21 20 16 19 18 16 15 12 10 9 10 9 10 11 11 8 7 2 2 2 1 0 1 3 3 2 4 4 5
12 12 13 12 13 14 15 16 18 19 20 20 20 20 21 22 21 20 20 16 17 18 16 14 13 13 11 9 7 9 10 11 11 9 7 6 5 4 2 2 3 6 2 4 5 8 4
13 12 13 13 13 13 14 15 17 19 19 18 19 19 19 20 21 21 21 19 18 16 8 9 7 6 7 8 7 7 6 7 9 9 10 6 6 3 1 4 4 4 6 11 9 4 5
14 13 12 12 12 13 14 15 16 17 18 18 18 19 19 20 20 20 20 19 19 8 3 8 8 6 7 6 8 7 7 7 7 9 5 4 4 0 2 5 8 4 11 10 6 5 4
15 14 13 12 12 13 14 15 16 17 18 19 19 20 20 20 21 20 18 18 15 3 4 6 8 7 5 8 9 9 7 7 8 7 5 4 2 1 4 8 7 8 9 3 2 3 5
17 15 14 12 11 12 14 15 16 17 19 19 19 20 21 21 19 19 16 15 6 3 13 9 10 9 7 10 10 9 7 5 4 4 2 3 1 2 4 4 5 8 3 3 2 3 1
19 16 15 13 12 13 13 14 15 17 18 19 20 20 21 20 17 18 17 16 4 9 8 14 14 11 7 11 9 8 9 9 6 5 4 2 2 2 5 4 2 8 7 3 3 2 4
20 17 15 13 12 13 14 14 14 17 19 20 20 20 19 18 19 19 19 7 4 12 16 17 13 6 6 5 6 6 8 10 7 6 3 2 2 2 5 4 5 4 4 4 2 4 3
21 18 17 14 12 13 14 15 15 17 19 20 19 18 18 22 20 19 14 7 12 13 17 16 7 8 6 7 5 4 4 4 6 8 6 3 2 2 2 4 4 2 2 2 3 2 4
23 20 18 16 13 12 14 16 16 17 18 19 19 19 21 21 18 18 11 8 16 18 15 14 8 9 9 9 6 5 5 5 5 4 4 4 1 3 2 2 2 2 1 0 0 2 3
25 22 18 17 14 12 13 17 18 17 18 18 18 16 21 20 18 17 12 14 16 16 14 12 10 8 11 9 7 6 6 5 3 1 1 4 1 2 4 5 5 5 4 3 3 2 5
26 23 20 18 16 13 12 16 18 19 19 18 16 17 20 19 15 17 14 16 17 16 14 11 11 10 10 10 5 7 7 5 3 3 4 5 2 2 2 4 7 5 5 10 13 9 11
28 24 21 19 17 15 12 14 17 19 19 18 16 14 18 19 14 13 14 16 16 15 12 11 10 10 10 9 6 7 6 4 4 5 5 6 4 4 5 7 10 10 11 11 11 10 14
29 25 22 20 18 16 14 14 15 17 18 18 17 15 19 20 15 14 14 15 16 15 12 12 11 10 10 9 7 6 5 4 6 7 5 4 7 11 12 13 19 18 16 15 20 22 18
31 28 25 22 20 19 17 15 16 16 16 17 16 14 18 12 16 16 16 17 15 14 14 13 10 10 9 7 6 4 4 5 7 6 7 10 8 14 16 14 17 22 26 19 9 13 18
33 29 26 24 22 20 19 18 17 17 16 15 15 13 16 14 18 18 18 17 16 12 12 11 9 9 8 6 5 4 5 7 8 9 10 10 8 9 8 12 25 13 4 6 13 15 13
34 30 27 24 23 22 20 19 17 16 16 14 14 12 16 18 19 18 15 14 14 13 11 12 11 8 7 6 4 4 5 6 9 9 7 8 10 9 8 13 4 6 18 23 15 14 12
36 32 29 26 24 22 22 20 19 16 15 15 15 15 16 15 18 17 15 14 13 12 11 10 9 8 7 4 3 2 3 4 7 10 6 6 7 7 3 6 22 15 4 8 14 20 21
36 34 32 28 25 23 21 21 20 18 16 15 15 16 17 16 18 16 16 14 13 13 12 11 10 8 6 4 2 3 3 4 4 5 7 6 8 9 8 5 5 4 17 19 15 16 13
37 35 33 30 27 24 23 22 21 19 18 16 15 15 15 15 14 16 16 14 15 15 13 11 11 9 8 7 7 5 6 8 5 5 8 11 13 12 10 10 12 16 14 12 12 14 33
34 35 34 32 28 26 24 23 22 20 18 18 17 16 15 14 12 14 14 14 14 15 14 12 12 14 11 10 7 7 8 9 10 13 12 12 7 8 6 8 7 6 21 18 28 32 36
32 33 34 33 31 28 26 24 23 21 20 19 18 17 16 15 11 14 14 15 15 16 16 16 17 10 10 8 9 7 10 14 15 13 16 15 11 12 13 17 22 28 24 32 32 30 33

GFSGBSN_700_spd_015.txt.gz
Wind_Speed
20 22 22 21 19 19 18 14 13 11 11 11 11 12 12 13 15 15 16 16 17 17 17 16 18 18 17 7 7 15 14 16 13 13 7 5 5 6 4 5 7 7 9 8 7 7 6
19 20 20 17 15 17 13 10 8 8 9 10 12 13 14 15 15 17 17 18 19 18 16 16 18 17 16 6 11 15 14 14 8 6 5 5 5 3 7 11 4 9 8 7 6 5 6
19 18 16 13 12 11 9 7 4 5 8 10 12 15 16 17 18 19 20 19 18 15 14 17 15 15 10 9 10 15 13 12 13 10 4 7 6 7 8 7 8 9 7 4 5 5 4
17 15 12 10 8 7 5 2 3 6 9 12 14 16 18 19 20 22 21 19 15 13 13 13 13 12 5 7 6 15 13 8 6 7 8 9 10 9 8 8 8 7 7 10 6 6 7
14 11 10 7 5 4 2 3 5 8 11 14 17 19 21 23 24 23 21 17 14 13 13 13 12 9 3 4 7 14 12 7 9 9 9 9 10 6 7 8 8 8 13 5 5 7 6
13 11 9 7 5 4 5 8 10 11 14 18 20 22 24 26 25 23 20 18 16 16 15 13 12 6 5 6 9 11 12 12 9 10 8 5 3 4 6 10 14 8 5 7 4 4 5
12 12 10 9 8 8 9 11 13 16 19 21 23 26 26 26 25 23 21 19 18 17 15 6 9 5 6 8 9 11 12 13 11 7 6 5 8 1 2 3 4 1 3 4 3 7 4
14 13 11 11 10 11 13 14 15 17 20 22 24 25 25 26 25 23 23 13 15 14 9 10 9 10 10 12 7 9 14 6 8 7 7 4 4 2 4 2 1 2 4 3 6 4 3
15 14 13 13 13 13 14 14 15 17 20 21 22 23 26 26 22 22 19 21 17 19 10 10 12 6 11 10 8 11 10 6 6 7 5 2 5 5 2 2 2 4 4 4 7 9 11
16 15 14 14 14 15 16 16 17 18 19 20 22 23 25 23 21 21 18 20 19 16 7 6 3 5 8 11 4 8 9 9 4 6 7 3 6 2 1 2 4 7 4 9 10 8 8
18 16 14 14 15 16 18 18 18 18 19 20 22 23 24 25 22 19 21 21 18 9 3 6 3 6 8 4 8 3 8 6 6 7 5 3 2 1 2 3 5 5 10 8 7 8 9
19 17 15 14 14 16 18 19 19 19 20 21 22 23 23 22 25 23 21 21 12 1 3 5 5 8 7 7 5 7 5 7 9 5 5 5 3 1 2 5 3 5 7 6 4 4 6
20 18 16 14 14 15 17 18 19 20 20 21 22 22 22 22 23 23 19 18 5 4 7 6 9 8 7 7 8 8 6 5 4 5 4 4 1 2 2 3 4 7 6 6 3 4 1
20 19 17 15 13 14 15 17 19 20 21 21 22 23 23 21 22 20 18 11 6 3 8 9 12 12 6 8 6 5 7 6 4 2 4 5 6 2 5 2 3 6 4 4 4 3 6
21 19 18 15 13 14 14 16 17 19 21 21 21 22 24 22 22 21 16 11 3 6 9 14 14 8 7 5 6 5 8 5 4 4 1 1 2 1 3 4 4 4 3 1 1 2 3
22 20 18 15 13 14 15 15 16 18 20 21 21 22 22 21 21 21 10 9 5 13 12 14 8 7 7 7 6 6 4 4 4 5 5 1 2 2 4 4 5 2 1 4 3 3 4
24 21 19 16 13 14 16 15 15 18 20 21 20 15 20 21 21 16 9 7 9 15 17 10 7 7 8 7 6 5 4 5 5 2 4 2 1 1 4 1 3 4 2 3 5 4 4
25 22 20 17 14 13 16 17 16 18 20 21 20 9 23 23 15 13 8 7 14 18 16 12 7 8 8 8 5 4 6 4 4 1 1 2 0 1 2 6 4 2 3 4 4 4 6
27 24 21 19 15 14 15 18 18 18 19 21 11 12 24 23 12 18 15 13 16 16 13 10 11 10 8 9 4 6 6 5 3 1 1 2 1 3 3 1 2 3 5 6 6 7 12
28 25 22 20 17 14 15 17 20 20 19 20 10 12 21 22 13 13 14 13 17 17 15 13 11 11 10 8 6 8 6 5 4 5 3 1 1 2 7 9 10 11 13 13 13 14 16
29 26 23 21 19 16 15 16 18 20 20 19 13 12 19 21 17 12 12 12 13 16 16 12 11 9 10 7 7 6 6 6 6 5 4 2 2 5 9 12 13 15 17 17 19 20 23
31 28 25 23 20 18 16 15 17 19 19 20 14 15 19 11 16 14 14 13 14 13 12 13 9 12 9 6 4 8 5 4 3 4 3 5 4 10 14 11 14 18 21 19 18 14 18
34 30 27 24 22 20 18 17 17 18 19 19 19 17 16 19 18 15 14 14 13 14 14 9 12 11 13 9 10 9 9 9 7 4 5 6 4 7 7 15 24 10 2 4 9 11 13
36 32 29 25 23 21 20 19 18 18 17 16 17 16 17 18 17 15 15 13 14 12 12 14 11 12 12 10 9 9 8 8 8 8 8 7 6 6 8 10 3 3 14 18 15 11 11
37 34 30 26 24 22 20 20 18 17 17 16 15 15 16 16 20 19 16 16 17 15 11 15 13 10 10 10 8 5 6 6 8 8 8 7 7 4 3 8 19 12 3 4 13 14 15
36 35 32 28 25 22 22 19 19 18 16 15 16 16 15 15 19 19 17 16 18 17 15 14 13 11 11 10 8 6 4 4 4 4 7 8 9 6 6 4 4 5 9 15 11 20 16
38 35 33 29 26 23 21 20 19 18 17 16 14 15 17 17 16 18 19 19 16 15 13 15 14 13 12 11 10 9 6 7 4 6 5 8 10 12 9 10 11 12 17 11 9 12 18
39 37 35 32 28 25 22 21 21 20 19 17 16 14 15 16 15 19 20 18 17 18 16 17 15 16 16 14 11 10 9 9 8 6 8 7 6 7 6 7 8 6 11 17 22 24 28
38 38 36 34 31 28 25 23 22 21 20 18 17 16 15 16 11 15 16 17 19 20 17 16 16 11 12 12 14 10 11 9 10 5 7 8 13 8 10 12 17 23 25 26 26 27 34

GFSGBSN_700_spd_021.txt.gz
Wind_Speed
27 26 25 27 26 28 28 28 29 29 26 23 19 15 14 14 14 15 15 14 14 14 15 15 17 22 14 8 7 5 13 11 10 14 16 9 5 2 9 6 5 3 5 5 4 16 14
25 24 24 25 25 26 25 26 27 26 22 18 14 12 12 13 14 14 15 14 15 16 16 17 22 21 12 6 4 10 15 12 7 3 3 5 2 7 4 9 9 7 5 3 9 18 16
24 23 22 22 23 22 23 23 23 20 16 13 11 11 13 13 13 15 16 15 16 17 17 18 23 19 5 8 6 10 17 7 9 9 3 7 8 10 6 12 8 9 8 4 8 4 7
23 23 21 21 20 20 20 19 18 14 11 10 10 13 15 15 16 17 18 18 18 17 16 18 19 15 4 5 11 16 15 9 14 9 8 14 14 9 3 8 8 9 11 11 8 6 6
23 22 19 19 16 17 15 14 14 10 9 9 10 11 14 17 20 21 21 20 18 17 17 18 17 9 3 5 11 16 15 9 11 13 3 14 13 6 7 8 11 11 12 14 13 9 4
22 20 19 17 13 13 10 12 9 8 8 10 13 16 19 22 24 24 22 20 18 18 19 18 17 4 5 4 12 15 17 12 10 12 12 15 12 7 6 8 6 3 10 18 16 12 10
21 17 16 15 11 9 8 9 7 9 11 14 17 19 23 26 26 24 21 19 18 19 20 12 7 10 2 7 6 11 12 15 14 13 8 4 4 8 8 7 5 1 10 18 17 11 4
20 16 16 13 10 8 9 9 9 11 15 18 20 24 27 28 26 25 26 23 10 11 8 10 9 5 10 9 8 9 13 14 14 7 3 5 6 4 2 3 1 2 5 11 9 6 5
19 16 17 13 11 11 12 11 12 14 18 21 24 27 27 25 27 22 12 18 18 11 9 12 6 8 18 13 6 14 17 10 5 3 3 7 5 3 8 2 6 5 4 4 5 7 10
20 19 16 15 13 14 14 14 15 17 19 23 25 27 26 25 26 11 15 21 22 17 8 10 10 11 12 11 11 12 13 11 6 3 8 3 2 5 6 2 1 3 3 7 9 8 6
22 20 16 17 16 16 16 16 18 19 20 21 23 26 25 24 23 15 19 21 20 5 3 10 8 6 11 5 3 5 13 11 2 1 7 5 6 5 4 2 4 3 7 8 7 7 8
24 20 19 19 18 18 18 18 18 19 19 20 22 25 23 22 22 18 16 20 11 5 4 8 5 10 8 7 4 2 12 10 6 5 4 6 3 2 3 1 7 5 7 9 9 7 3
24 21 20 20 19 19 20 20 20 20 20 20 22 25 24 22 21 17 23 13 1 1 10 6 13 10 7 8 6 8 11 10 4 6 5 10 3 7 4 2 6 7 10 4 2 1 2
26 23 21 20 20 20 21 21 22 21 21 21 22 24 24 19 18 19 22 10 2 5 5 10 14 11 9 10 13 8 7 8 9 8 11 11 3 1 5 6 1 7 8 4 1 1 5
27 23 22 20 19 20 21 23 22 22 22 21 22 23 23 21 17 19 20 7 3 5 9 11 12 12 11 6 8 6 11 4 5 7 5 11 5 4 3 5 4 5 7 6 3 5 3
27 24 22 20 19 19 21 23 23 23 23 21 20 19 19 20 18 20 21 8 1 5 7 13 14 12 10 10 10 6 4 1 3 7 8 9 7 2 8 7 11 8 6 4 4 2 2
28 25 22 20 19 18 20 22 25 24 23 22 20 18 19 19 21 21 18 6 4 11 14 15 13 9 6 12 9 10 5 6 8 6 6 12 6 8 5 5 5 4 2 3 1 1 4
29 25 23 20 19 19 21 23 24 25 25 23 19 16 16 20 21 22 14 4 8 7 15 13 7 10 7 12 5 7 11 8 8 10 7 8 9 8 5 4 2 2 1 1 2 2 1
29 25 23 21 18 19 21 22 23 25 25 23 19 12 12 20 21 22 10 8 5 6 14 12 13 11 6 12 6 7 11 8 11 7 8 11 9 8 3 1 2 4 1 6 8 10 11
30 26 24 21 19 19 20 20 22 25 25 24 18 12 12 19 16 20 10 10 13 12 12 10 9 13 11 10 8 11 11 11 8 6 7 9 10 6 7 4 5 6 8 8 11 10 13
29 26 24 21 19 19 21 19 23 27 28 25 12 11 12 25 17 18 12 5 11 16 13 13 8 10 12 9 7 9 8 9 8 7 8 9 11 10 8 6 8 9 11 13 15 15 16
30 27 25 23 20 19 20 20 23 28 30 22 12 15 13 17 18 17 16 12 11 5 8 9 5 9 11 12 12 10 8 4 5 8 9 10 7 7 4 6 7 14 8 4 1 3 7
31 28 26 23 20 19 19 23 23 28 28 19 9 11 18 11 22 15 12 15 13 14 9 11 10 15 15 15 17 16 13 11 9 8 9 6 6 4 3 6 11 4 5 7 9 12 14
32 29 26 24 22 19 19 21 24 25 25 21 17 14 17 17 18 18 16 14 12 15 12 12 12 19 20 16 12 13 12 12 12 11 9 7 7 5 4 6 1 5 9 15 10 12 11
33 29 27 24 22 21 19 20 20 22 22 22 15 16 13 11 14 16 11 12 14 17 15 18 20 18 18 17 14 12 11 11 13 11 13 12 10 5 4 4 11 9 6 11 12 12 14
33 30 27 24 22 21 19 18 20 19 18 16 13 12 12 11 12 15 15 17 19 20 19 21 19 18 17 17 14 8 7 6 6 6 14 12 10 10 8 4 6 7 6 11 15 16 18
34 30 27 24 22 21 19 17 16 15 15 14 13 12 12 12 13 18 17 19 21 21 19 18 17 16 14 15 14 11 10 10 7 7 10 15 13 15 15 9 8 10 15 14 11 15 17
34 31 28 25 23 20 18 17 16 15 14 13 12 12 12 12 10 16 19 19 19 15 17 16 16 17 17 16 14 14 11 13 13 14 11 12 9 10 10 7 10 8 11 17 20 26 27
34 31 29 26 23 20 18 17 16 16 15 14 13 11 11 11 9 13 20 20 19 18 14 14 16 14 13 11 15 11 12 12 17 12 17 15 19 12 13 9 16 20 21 27 30 30 30

GFSGBSN_700_spd_024.txt.gz
Wind_Speed
27 30 29 29 28 28 27 27 27 27 28 27 26 23 19 17 15 14 15 15 15 15 14 14 18 21 14 9 6 13 15 10 8 10 7 4 6 3 5 4 8 11 5 8 17 16 10
26 28 27 27 27 27 25 25 26 25 26 24 21 17 15 14 14 14 15 16 16 16 16 19 23 20 13 11 10 10 11 5 8 5 3 5 3 4 2 5 13 9 8 9 13 16 15
26 25 25 26 26 24 22 23 22 23 23 20 16 13 14 13 13 13 15 16 17 18 19 21 25 17 9 11 9 12 10 7 6 5 8 5 2 5 11 13 10 2 3 8 12 16 14
26 24 25 25 25 23 20 21 19 20 19 16 13 13 14 13 14 16 18 19 19 19 20 24 23 14 9 10 11 12 8 10 9 7 7 9 5 8 9 10 5 6 4 4 6 9 10
25 24 25 25 22 21 18 17 16 16 14 11 12 10 12 14 18 20 21 21 20 19 20 22 21 11 7 14 16 14 16 15 12 7 9 13 7 11 8 7 8 10 9 15 9 9 5
25 24 24 22 20 18 15 13 13 13 10 9 9 13 15 18 20 22 23 22 20 19 20 22 18 8 6 9 13 18 14 14 14 8 11 17 11 12 5 8 9 11 13 19 18 15 10
26 25 23 21 17 15 12 12 11 10 9 11 13 17 19 22 26 26 24 22 19 19 21 20 13 9 7 4 6 15 14 15 17 17 16 12 5 5 4 6 4 2 8 13 18 14 13
27 24 23 20 16 12 12 11 9 10 11 14 19 22 24 27 27 24 22 21 22 21 15 12 10 11 12 9 10 17 14 18 18 14 7 4 7 9 8 6 6 7 14 15 14 14 5
27 25 22 20 16 13 13 12 10 13 16 19 24 27 29 27 24 26 23 22 22 16 10 9 7 12 8 10 8 17 19 18 12 6 3 7 10 9 8 6 9 7 14 15 7 4 1
28 26 23 20 17 16 15 14 14 17 19 23 28 30 29 28 26 17 22 21 17 12 7 11 9 10 12 11 12 20 18 14 5 1 7 8 8 8 8 5 4 4 3 1 4 7 2
30 27 24 23 19 19 18 17 18 20 23 27 30 31 29 30 20 23 22 23 19 8 2 13 9 17 13 11 8 18 16 10 7 8 8 8 8 8 4 2 2 2 3 2 5 3 2
31 29 26 24 22 22 21 20 22 23 24 27 29 30 28 29 22 23 21 23 16 3 3 9 11 13 13 9 8 15 17 10 7 6 8 7 2 4 3 4 7 2 2 3 4 3 2
33 29 28 26 25 24 23 24 23 25 26 27 29 28 27 29 22 16 19 17 6 4 14 13 14 14 12 8 8 12 17 14 10 10 9 7 3 5 4 8 7 3 2 2 3 2 3
34 30 29 28 26 25 26 26 26 26 27 27 29 29 27 26 21 16 22 13 4 8 11 14 18 15 15 11 9 12 11 9 9 7 15 6 3 2 4 6 4 6 7 4 4 2 3
35 32 30 28 26 27 27 27 28 28 26 26 27 27 25 24 20 20 17 8 3 8 16 18 15 16 13 15 10 13 11 9 9 9 10 8 5 4 6 6 6 4 7 6 4 2 1
36 33 30 27 26 27 28 29 29 28 27 25 24 25 24 23 20 21 19 5 4 7 17 13 19 14 13 12 11 9 8 6 7 9 10 10 8 7 10 10 8 7 7 2 3 2 1
35 33 30 27 26 27 28 30 30 29 28 25 24 24 24 23 20 22 22 6 3 10 14 15 16 11 9 12 14 9 8 7 9 12 9 12 6 10 7 5 6 6 4 3 2 1 4
36 32 29 26 26 26 28 30 31 31 29 26 24 22 23 23 22 24 24 5 7 11 15 14 11 8 11 17 15 16 12 7 9 11 12 11 10 10 7 4 5 4 4 3 2 3 3
36 32 29 26 26 25 28 29 32 32 29 27 22 21 20 23 22 24 18 7 9 9 17 15 12 11 15 15 9 7 9 8 10 9 10 14 10 10 5 5 6 4 5 4 5 7 9
35 32 28 26 25 26 27 29 31 31 30 28 26 20 19 22 22 23 12 10 10 8 12 16 14 12 13 13 13 9 10 9 12 10 11 14 16 9 10 6 7 8 9 8 8 8 12
34 31 28 26 25 26 28 29 30 32 32 30 28 20 17 25 24 24 16 9 13 13 13 12 17 14 14 14 13 12 11 12 13 11 12 12 13 11 10 10 10 12 11 11 14 16 12
34 31 29 26 25 26 27 27 31 33 34 30 20 17 14 11 20 23 20 13 7 15 14 13 10 12 15 16 15 13 10 12 11 13 14 14 10 14 12 13 12 11 12 10 7 8 10
34 32 30 27 25 26 27 27 32 35 37 23 21 18 18 19 23 21 24 15 11 8 9 10 12 13 14 11 11 8 9 7 7 8 11 11 11 11 7 12 11 13 13 11 9 11 16
35 32 31 28 26 25 27 27 32 36 35 16 20 20 21 30 26 21 17 19 14 15 10 10 12 13 15 13 11 10 11 11 11 10 10 11 10 9 5 7 1 8 10 9 11 12 17
35 33 31 28 26 24 26 27 30 34 31 20 19 18 21 18 23 21 17 17 16 16 14 11 13 13 15 14 13 11 13 14 17 18 17 16 13 8 5 8 10 10 16 12 9 13 19
36 33 31 29 26 25 25 27 27 30 27 21 17 15 15 17 21 22 20 18 16 16 14 15 18 18 17 16 16 12 7 9 6 7 18 18 17 16 10 5 6 8 13 13 12 20 9
35 33 30 29 27 24 24 26 26 27 26 22 19 16 15 15 16 20 21 17 16 17 17 17 18 18 17 16 18 17 13 11 8 9 10 16 17 20 19 11 10 15 16 15 10 12 16
35 32 30 28 26 24 22 21 23 23 21 19 17 15 14 14 14 20 20 20 18 18 16 17 17 19 18 17 16 16 12 15 16 17 13 11 10 14 14 10 12 15 17 18 19 25 24
34 32 29 27 26 24 22 20 19 19 18 17 15 14 14 15 13 18 21 18 17 18 17 16 17 14 12 11 15 12 13 13 18 16 19 17 21 15 16 10 15 21 25 25 26 26 28

GFSGBSN_700_spd_027.txt.gz
Wind_Speed
31 29 29 29 29 29 30 30 29 31 29 29 27 24 24 21 18 15 15 15 16 14 12 13 14 15 15 10 11 12 13 8 5 9 9 7 7 11 11 5 9 14 12 8 12 12 14
32 29 28 29 27 27 28 28 28 28 28 28 24 22 19 17 14 13 14 15 16 14 14 15 16 18 15 13 13 13 13 12 12 10 9 10 6 1 5 8 13 14 12 11 17 16 12
33 29 29 28 26 26 26 26 26 27 25 25 20 18 16 15 14 13 14 15 15 16 16 18 20 19 14 13 12 14 13 15 12 8 8 8 5 5 6 19 13 10 9 13 16 17 15
34 31 30 27 26 25 23 25 24 25 23 21 16 14 15 14 12 14 16 16 16 18 19 20 22 15 13 14 12 14 13 11 9 7 7 7 8 13 14 18 12 8 5 11 17 14 13
35 33 29 27 26 24 23 22 23 22 20 17 11 13 11 11 13 16 18 18 19 19 20 22 21 12 11 15 13 13 10 8 7 3 2 7 8 16 16 15 10 8 5 5 6 10 9
36 34 30 29 25 23 22 21 20 19 16 12 8 9 10 12 16 19 19 19 19 19 19 23 17 11 7 11 15 15 8 8 8 7 7 8 8 7 6 3 5 8 10 12 13 8 11
37 34 31 30 24 22 21 20 18 15 13 9 9 12 14 16 18 20 21 20 18 16 22 23 15 4 10 11 15 16 12 11 10 8 11 12 7 4 5 4 6 5 10 14 10 15 15
37 34 32 29 24 22 21 18 15 13 11 10 14 15 17 22 24 24 21 18 17 17 21 18 14 10 9 9 8 19 14 13 13 13 13 7 6 5 5 4 4 3 3 13 13 11 10
37 36 33 30 25 23 21 18 13 13 12 14 16 20 24 26 26 24 18 18 17 15 16 13 11 12 8 7 11 18 14 16 17 10 7 4 7 7 7 4 4 13 12 17 14 10 4
39 37 35 31 27 24 22 17 15 15 15 18 21 26 29 28 26 24 21 21 20 15 9 12 12 11 8 8 9 16 17 14 7 8 7 8 10 10 9 7 2 10 12 9 6 7 6
41 38 36 32 28 26 23 19 18 18 19 23 27 30 31 29 25 22 20 21 17 12 3 14 11 12 10 11 12 18 13 10 6 14 8 8 8 7 6 6 5 5 6 4 4 3 5
41 38 37 32 30 28 24 23 21 21 23 27 32 32 31 31 23 21 21 21 16 3 3 12 11 17 15 9 13 18 12 9 11 7 8 11 7 6 6 6 6 7 7 7 6 3 2
42 40 38 34 32 29 27 26 25 24 27 31 34 32 31 26 23 21 21 20 8 4 13 12 15 18 15 11 11 21 16 14 11 14 14 9 4 3 8 8 4 4 8 3 1 1 4
44 42 39 36 34 32 31 29 28 28 30 33 34 31 33 26 23 22 24 18 6 7 14 13 16 18 14 14 12 19 17 13 12 8 13 7 4 5 6 10 5 3 3 4 5 3 3
45 44 40 38 35 34 33 32 31 30 31 33 34 31 33 28 24 24 23 15 1 10 11 21 21 18 16 13 11 15 15 13 11 10 7 7 5 4 5 9 8 3 3 4 5 3 2
47 44 40 38 36 36 36 34 33 31 31 32 32 31 30 29 25 25 19 8 4 8 21 21 23 15 17 16 14 16 13 11 13 11 13 10 7 10 8 7 7 6 5 1 2 2 1
46 43 41 37 38 37 38 36 34 33 32 32 32 32 30 29 26 24 20 5 6 12 19 21 21 16 11 17 15 13 13 8 11 13 14 13 8 11 10 5 7 7 2 2 3 2 5
45 43 39 38 37 38 38 37 36 35 34 33 32 31 30 29 27 26 24 7 6 6 18 16 18 8 10 16 17 14 11 8 9 13 13 14 8 13 9 8 7 6 4 3 1 3 4
46 42 39 37 36 37 38 37 37 36 35 32 31 29 29 29 29 30 26 10 8 9 10 14 11 11 12 20 15 15 14 11 8 11 11 13 9 10 5 6 10 8 9 7 5 4 7
45 41 38 36 35 36 36 37 38 37 34 31 30 25 30 30 29 31 22 14 11 10 11 13 12 11 15 16 12 10 12 9 9 11 11 15 11 12 13 5 10 11 12 11 10 8 13
44 40 38 35 34 34 35 37 39 37 36 34 32 23 32 33 30 28 21 16 13 8 12 13 14 14 15 15 12 11 10 10 10 12 11 13 10 18 11 10 10 11 13 15 17 17 15
43 39 37 34 33 32 33 36 39 38 36 35 30 22 28 13 28 27 25 17 15 13 12 12 12 15 14 14 14 9 12 12 12 14 12 14 8 14 13 14 15 17 18 19 20 22 21
41 39 36 33 31 31 32 35 37 38 37 35 28 24 24 21 28 28 31 18 11 12 15 12 9 11 12 11 10 8 7 7 8 11 12 14 13 9 8 14 15 16 22 24 19 17 16
41 37 34 32 30 31 32 33 35 37 36 30 25 25 23 23 28 25 26 22 14 12 7 8 12 14 12 10 7 8 7 7 7 8 8 9 11 10 6 7 1 16 16 15 18 19 19
40 36 34 31 29 31 31 31 34 37 38 26 22 20 24 25 25 24 22 22 17 15 14 9 7 11 10 12 10 6 8 9 12 13 14 14 14 10 6 12 14 14 15 18 18 20 17
39 36 33 30 28 30 29 30 36 42 38 27 24 23 20 29 28 25 19 19 19 16 16 14 11 14 14 15 14 9 6 6 5 6 13 19 19 17 10 5 6 9 11 16 21 23 18
37 36 33 30 29 30 29 30 35 38 34 21 21 23 22 25 25 26 22 19 16 18 17 15 13 15 16 16 17 15 13 14 9 12 15 15 16 20 23 14 11 19 18 16 15 16 11
36 36 33 29 30 30 30 29 33 36 36 23 19 17 17 20 21 23 22 20 19 18 16 15 15 17 18 17 16 15 11 14 16 20 19 15 9 12 14 12 14 19 19 20 17 16 25
36 34 32 30 27 29 30 29 31 32 31 22 19 18 18 19 18 21 21 19 18 16 15 14 15 14 13 12 16 15 13 14 17 18 20 19 21 16 16 12 17 18 17 21 24 26 28

GFSGBSN_700_spd_030.txt.gz
Wind_Speed
35 33 33 32 30 31 30 31 30 30 28 26 26 26 30 29 28 23 17 14 12 13 14 13 12 11 9 11 9 10 11 8 6 7 9 8 8 8 12 14 7 7 9 5 19 12 12
37 34 34 32 31 30 31 29 29 28 26 24 25 27 29 27 24 17 13 12 12 13 13 12 12 12 15 14 12 15 11 12 13 10 9 11 9 9 9 10 5 12 10 12 16 14 12
40 37 36 32 32 31 31 29 28 26 24 23 24 27 27 23 19 13 13 11 12 14 13 13 13 17 18 14 16 16 16 15 12 11 12 10 4 5 10 12 8 11 11 14 17 15 13
43 39 37 34 32 31 30 29 26 24 23 23 22 26 22 19 14 11 11 11 14 15 14 15 16 20 15 12 14 14 14 13 10 9 12 9 5 8 12 15 14 9 7 13 13 15 12
44 41 39 35 33 31 29 28 25 23 22 21 21 22 16 14 10 10 11 14 15 15 15 16 21 16 12 13 12 13 13 12 8 6 7 6 7 9 16 17 14 9 8 5 13 12 11
47 43 41 37 34 31 29 27 23 22 21 18 19 17 12 12 11 13 14 15 15 16 18 20 20 13 11 13 14 14 10 9 6 4 4 6 9 15 15 12 9 9 8 6 7 10 7
50 44 41 39 35 31 29 26 23 22 20 17 16 13 12 13 14 15 15 16 16 16 19 21 18 8 10 12 18 17 11 10 8 8 6 10 11 10 8 7 4 3 5 9 10 14 10
52 46 41 40 36 32 29 25 24 22 17 16 14 13 14 15 16 17 18 17 16 14 18 19 16 10 9 12 18 17 14 11 9 7 12 11 12 8 7 4 4 2 3 1 7 10 14
52 47 42 41 37 33 29 26 24 21 16 16 15 15 16 17 20 21 20 18 14 12 16 17 12 10 8 9 11 22 17 12 9 10 9 8 7 7 4 5 2 5 6 10 9 10 8
53 48 43 42 39 34 30 28 25 20 18 17 18 19 21 24 25 23 18 16 14 13 11 12 12 12 9 7 9 16 16 11 12 9 6 6 6 4 5 4 3 9 8 5 6 6 4
54 48 44 44 40 35 31 29 26 22 19 20 22 24 26 27 25 21 17 17 14 15 3 12 14 12 9 8 9 13 13 10 13 11 10 7 6 5 6 6 5 7 8 7 6 5 5
53 49 46 44 42 37 34 31 27 24 22 24 26 29 31 29 24 20 18 18 15 7 3 13 15 15 12 9 13 15 11 12 12 11 8 9 9 6 6 6 6 7 8 7 5 3 2
58 50 47 45 42 39 36 33 29 26 26 28 30 32 31 29 23 20 20 19 10 4 11 13 18 17 13 11 12 16 12 16 12 12 11 9 6 7 8 8 5 5 6 0 1 1 4
60 51 46 44 43 40 38 35 32 29 30 32 34 34 31 28 23 21 21 19 6 4 15 14 17 17 13 12 10 17 14 15 13 9 15 9 4 6 7 9 4 4 8 5 5 3 3
54 52 46 44 44 41 40 38 34 32 34 36 36 34 33 28 23 22 21 19 3 6 11 18 16 19 14 11 10 18 17 14 13 10 10 8 6 6 7 12 7 5 4 5 2 1 1
58 52 47 44 43 43 42 40 36 35 36 37 37 34 34 29 23 23 23 18 5 8 12 17 21 17 16 14 11 13 17 14 13 12 14 7 5 7 6 8 9 7 6 2 2 2 3
48 52 47 45 44 43 42 40 38 37 36 37 37 35 34 31 25 24 25 19 6 8 19 22 16 16 14 16 12 14 12 8 13 12 13 12 10 9 8 5 8 9 5 3 3 2 4
49 49 47 45 44 44 43 41 39 39 39 39 39 37 35 33 28 28 28 16 7 9 17 22 17 11 11 20 15 16 12 13 10 11 13 13 9 8 14 9 10 9 8 7 3 4 4
47 52 49 46 46 45 44 43 41 41 40 40 40 36 35 33 31 30 31 13 6 9 12 19 19 15 9 17 17 17 14 12 9 10 11 14 8 7 5 10 14 12 12 10 8 5 8
56 53 49 47 45 46 45 43 43 41 39 37 36 30 35 34 32 32 31 20 8 9 11 13 14 13 11 15 18 14 16 13 11 11 13 15 12 11 15 5 10 15 15 14 13 7 7
55 53 49 46 46 46 45 43 44 42 39 37 36 30 39 37 35 33 31 18 12 10 9 10 11 12 12 15 14 10 12 13 11 11 12 12 13 16 15 11 10 13 15 16 18 18 16
55 51 48 46 45 44 43 43 44 43 41 38 35 29 35 15 33 33 29 23 17 16 9 10 12 13 14 10 10 9 9 11 11 12 13 13 10 13 16 16 14 17 18 20 22 25 26
52 49 46 43 41 40 42 44 44 43 40 38 33 28 29 32 33 34 31 25 20 18 12 10 8 12 15 12 11 9 8 8 8 11 11 13 11 10 7 14 17 19 25 26 28 29 27
48 46 43 40 38 38 40 43 44 42 39 36 31 24 26 26 24 33 29 29 17 12 11 13 10 10 9 7 7 5 6 5 6 7 8 9 9 9 6 7 2 18 20 17 20 25 28
46 43 39 36 35 36 37 40 41 40 38 35 31 24 23 23 24 29 29 29 22 16 12 8 8 9 8 9 8 6 8 8 11 12 11 11 10 7 6 10 18 18 20 21 22 20 21
44 40 36 33 32 33 35 36 38 39 37 32 27 25 23 18 26 27 26 30 25 18 17 13 9 9 10 11 11 8 5 4 4 4 9 13 15 15 11 6 6 12 13 15 18 27 26
40 36 34 31 30 31 32 34 35 37 38 31 26 23 20 19 28 27 23 25 25 21 19 16 15 13 12 13 14 12 11 10 7 7 9 12 13 17 19 15 10 20 21 20 13 19 12
39 36 32 30 30 30 30 31 34 37 38 33 28 23 19 21 27 28 23 22 21 20 19 18 17 15 14 17 16 15 10 12 13 18 17 15 9 11 10 9 11 14 16 16 15 15 19
37 33 31 32 30 29 27 30 34 40 37 24 22 20 20 21 23 24 22 22 19 18 19 16 13 10 11 11 15 13 15 17 17 18 19 16 19 15 13 11 16 21 26 25 21 22 27

GFSGBSN_700_spd_033.txt.gz
Wind_Speed
41 39 37 35 34 32 31 28 27 27 28 27 26 25 24 26 28 27 27 23 18 14 14 12 12 10 9 9 7 7 9 8 6 5 5 5 7 10 10 13 11 8 3 2 18 14 17
45 43 40 36 35 34 32 29 28 27 27 26 24 23 24 26 27 25 22 18 14 13 12 12 11 9 10 13 12 13 10 9 9 10 8 9 10 7 13 13 7 6 5 7 19 16 18
47 45 41 38 36 35 32 30 28 27 26 25 23 24 24 25 24 22 18 14 12 11 11 11 10 11 16 13 16 14 11 11 9 10 8 10 8 10 12 9 4 9 7 11 16 14 16
49 46 44 40 36 35 32 31 29 28 25 23 22 24 24 23 20 17 14 13 11 12 12 11 12 16 15 15 19 14 14 12 10 8 10 9 10 11 10 10 14 10 9 14 13 13 15
52 45 45 42 39 36 34 30 30 28 25 22 22 24 23 20 15 14 12 13 13 13 12 12 16 18 15 16 17 14 13 12 8 6 6 7 9 10 14 18 14 10 7 12 13 12 12
56 43 47 43 41 38 34 31 30 27 24 22 21 24 20 17 11 14 12 14 13 14 14 15 19 15 13 14 19 15 14 11 9 3 4 9 6 10 19 15 9 10 9 9 11 14 13
58 52 42 45 42 40 34 32 30 27 24 22 21 22 18 14 11 14 13 14 14 15 16 16 19 10 12 12 20 17 13 12 6 3 3 7 9 13 13 10 6 6 7 6 10 10 13
59 55 45 47 44 42 35 33 31 27 24 23 21 19 17 13 14 13 14 14 13 10 13 18 20 9 10 14 21 18 14 11 5 4 6 9 10 11 10 8 5 5 4 2 8 15 14
62 58 59 45 47 43 37 35 31 27 26 23 21 18 17 13 15 15 16 15 12 8 13 17 15 14 6 9 20 21 19 13 7 8 11 12 12 10 8 7 5 4 3 5 5 8 11
63 60 59 43 50 45 40 36 32 28 28 23 20 20 17 18 18 21 17 14 11 9 11 18 12 11 9 10 14 23 20 13 9 11 11 9 11 9 6 5 3 4 4 3 6 7 4
67 65 58 50 53 46 41 37 33 31 29 24 22 22 21 22 26 21 16 14 12 15 3 14 13 12 11 11 12 18 20 12 12 14 10 9 9 7 6 3 2 3 4 5 5 7 6
65 64 62 51 54 47 43 39 36 33 29 27 26 26 27 29 25 19 16 16 13 7 4 12 19 15 13 11 13 16 18 14 14 13 10 12 10 7 3 2 3 3 6 6 5 3 2
65 68 62 55 54 49 44 41 38 34 31 30 30 29 31 32 26 21 18 18 9 6 8 13 20 18 14 11 15 17 16 16 16 14 12 11 8 5 5 6 5 5 6 1 1 0 3
57 72 62 64 56 49 45 43 40 36 34 34 33 35 37 33 27 22 20 20 6 9 13 13 19 19 15 13 14 17 14 18 15 11 14 9 4 6 7 10 5 6 10 5 4 3 1
52 77 58 57 51 48 46 44 41 39 37 37 38 40 39 36 27 24 22 22 9 6 15 16 20 20 16 15 12 19 17 15 14 11 8 9 6 9 7 10 9 6 6 8 3 1 2
50 79 63 64 49 48 47 44 43 41 39 40 40 42 39 36 29 25 23 19 10 8 17 19 21 21 17 15 11 18 17 15 13 12 10 7 6 9 8 9 12 9 5 3 4 3 3
56 70 63 54 55 50 46 44 43 42 40 42 43 41 39 37 29 27 27 25 15 10 15 19 19 18 17 17 9 15 15 11 14 12 11 11 8 8 8 8 10 10 10 5 4 3 3
43 79 44 57 57 53 48 46 44 43 44 46 45 42 40 36 32 29 30 27 12 11 18 19 17 15 17 18 12 13 11 12 11 15 13 14 9 9 14 9 9 11 11 9 5 5 5
45 72 45 60 53 52 49 48 46 46 46 47 43 38 37 36 35 30 30 26 13 13 18 23 18 12 13 13 14 13 13 10 11 8 12 15 10 7 4 10 14 15 16 14 12 8 9
63 48 55 56 54 52 51 49 47 45 45 46 42 31 39 37 33 33 30 26 14 13 15 20 20 15 11 9 18 11 15 14 13 12 12 14 16 12 14 7 8 19 21 18 16 10 11
54 40 63 57 54 53 51 49 47 46 46 47 42 30 41 41 37 34 28 26 14 14 13 15 15 17 14 10 18 16 17 17 15 14 14 15 15 18 17 14 12 13 14 19 22 22 19
27 62 62 58 54 52 51 49 49 47 47 46 39 28 36 17 36 31 30 25 19 14 14 14 12 13 13 11 13 16 10 11 13 14 15 16 11 13 16 18 17 18 18 19 22 24 28
60 63 60 57 53 52 51 51 50 47 46 44 33 25 27 31 36 34 31 30 21 17 12 10 11 14 13 12 10 8 9 11 12 14 14 15 13 10 8 13 16 17 26 26 27 28 29
63 60 56 52 50 50 51 51 49 47 43 40 32 26 23 31 23 35 29 27 24 19 15 11 10 11 13 12 10 8 8 8 9 9 11 10 11 10 6 6 2 15 18 17 19 19 22
58 53 50 48 48 48 49 49 49 45 41 38 34 24 22 23 32 33 30 28 25 20 15 13 12 11 10 11 10 7 8 8 10 11 11 10 9 6 4 8 15 16 16 21 23 23 21
50 48 46 46 45 45 47 47 46 43 41 38 34 23 19 22 27 26 32 30 28 23 18 15 11 12 12 14 11 7 6 5 5 5 13 15 14 12 9 5 5 5 12 17 20 23 19
45 44 43 42 41 41 42 43 44 42 40 37 32 26 20 20 17 28 31 33 31 26 22 19 16 13 11 12 11 10 9 7 4 4 5 8 10 14 17 11 9 11 15 16 9 11 11
42 41 38 36 35 35 36 40 42 40 38 34 28 25 20 20 14 26 27 29 31 27 22 19 20 19 15 14 11 11 8 10 10 12 11 10 6 7 8 7 7 4 6 8 14 21 19
39 35 32 31 30 32 34 37 39 39 36 34 27 24 20 18 18 26 25 19 23 27 23 20 18 12 15 11 12 8 11 11 13 12 14 13 14 11 11 9 14 20 22 19 20 21 20

GFSGBSN_700_spd_036.txt.gz
Wind_Speed
42 42 39 36 36 34 31 28 28 25 25 25 26 27 26 24 24 25 25 25 25 20 14 12 12 12 10 8 8 5 5 6 6 5 5 6 6 9 10 11 14 14 7 3 6 13 16
44 43 43 41 38 35 33 30 29 26 25 24 26 26 25 23 24 25 24 23 21 14 11 11 10 10 10 11 10 9 8 6 6 7 8 8 11 11 9 8 10 7 7 8 15 15 12
45 45 44 43 42 38 35 33 30 27 25 24 25 25 24 23 23 24 23 20 17 11 10 10 10 10 12 13 13 12 7 6 7 8 8 9 10 10 8 7 6 7 8 15 15 13 14
45 46 46 44 44 41 37 33 30 28 25 24 25 24 22 23 23 23 20 16 15 10 10 11 11 12 14 14 15 11 9 9 6 6 9 9 11 11 8 9 10 8 11 11 13 14 15
41 45 46 45 46 43 39 35 32 29 25 24 25 23 23 22 22 21 18 15 14 10 11 12 13 14 16 14 16 11 11 10 8 6 5 6 9 11 12 13 12 11 10 10 12 16 17
38 41 44 45 46 44 41 37 33 29 26 25 24 22 23 22 21 18 16 15 12 10 12 14 15 15 15 15 18 13 12 10 9 4 2 8 7 8 14 15 16 9 7 12 12 12 16
37 39 42 42 46 45 43 39 34 30 27 25 23 23 23 21 19 16 15 15 10 11 14 14 15 10 15 15 19 15 12 8 7 1 1 10 6 11 16 11 2 7 8 10 10 16 12
39 38 38 44 45 44 41 42 35 31 29 25 23 23 22 18 18 15 14 13 11 10 13 16 19 10 13 15 22 17 14 6 17 4 4 8 9 13 13 9 6 8 9 8 15 14 13
44 39 36 40 43 45 40 43 38 32 29 26 25 23 20 18 16 13 13 13 13 9 10 18 21 13 10 14 22 18 15 10 11 8 6 7 9 9 8 7 6 6 5 5 6 19 17
48 42 38 39 42 47 46 44 40 34 31 28 27 22 19 17 16 16 16 15 11 9 6 13 15 18 11 10 15 26 19 11 8 12 7 7 9 9 9 7 8 6 6 5 5 11 10
47 45 41 41 46 47 48 44 42 37 33 31 29 23 19 21 18 20 19 16 11 13 5 12 15 15 12 14 10 25 23 16 8 17 13 9 12 11 8 7 7 5 5 5 6 8 6
46 45 44 44 48 51 57 44 45 39 35 34 30 25 24 24 23 23 21 18 14 7 6 12 16 17 16 13 12 18 20 16 13 14 13 13 13 11 8 7 6 5 5 4 5 5 10
51 51 51 49 54 55 56 52 47 41 38 36 32 28 27 27 30 26 24 20 9 11 6 13 20 19 15 15 15 17 19 19 13 13 11 11 11 10 7 5 5 6 6 4 4 5 6
60 61 62 60 61 60 58 50 48 43 41 39 34 32 31 34 33 27 25 22 11 14 11 12 19 19 16 16 15 19 19 18 19 15 15 14 7 8 8 9 5 7 7 5 4 3 2
53 51 56 66 67 66 58 51 50 46 44 41 38 37 38 41 36 30 26 22 14 9 16 15 20 21 16 18 14 19 17 16 19 16 13 11 6 10 7 7 7 6 6 9 3 5 3
52 51 46 44 63 64 59 55 51 50 45 42 38 38 42 44 38 31 28 23 15 12 15 17 20 20 19 18 15 20 18 18 17 16 14 10 4 8 8 8 10 9 6 3 6 3 4
47 47 50 50 62 73 53 56 53 49 46 42 40 41 49 45 38 33 27 24 24 10 19 18 20 19 18 17 15 20 16 14 18 16 13 9 9 6 10 9 9 13 11 9 5 3 2
44 45 45 46 63 67 67 55 55 50 46 44 45 41 52 47 41 34 27 25 21 16 20 21 18 15 18 17 15 14 16 15 17 15 13 13 9 7 10 12 13 14 11 12 8 5 5
43 43 44 44 60 70 56 61 58 54 53 49 48 34 47 47 37 37 27 27 21 17 21 22 20 18 19 19 13 14 15 16 12 15 13 15 10 8 4 9 13 13 16 16 15 10 9
42 42 43 39 43 59 62 64 60 56 51 46 48 33 42 46 33 31 30 27 23 18 22 24 21 17 16 17 18 14 16 16 13 13 12 13 16 14 17 9 7 10 21 21 16 9 10
40 40 40 40 67 41 66 65 60 55 51 49 49 35 41 48 42 32 29 29 22 20 19 24 23 18 16 15 17 18 17 16 16 15 15 14 12 20 21 17 15 15 13 17 22 21 14
37 39 39 41 45 62 64 61 60 56 53 53 49 32 34 33 40 32 31 27 23 21 21 23 20 21 18 16 12 15 18 17 17 17 17 17 12 16 18 20 20 20 20 19 19 20 25
35 35 41 47 60 66 63 60 59 57 55 55 42 26 40 25 42 32 34 27 23 20 21 21 17 18 17 15 13 11 15 12 14 16 16 18 18 13 8 14 15 16 24 26 26 27 27
32 40 55 55 62 61 63 61 59 57 55 53 38 26 34 33 43 35 28 30 27 20 17 17 15 16 16 15 13 11 11 12 13 15 14 14 16 12 6 4 3 12 14 14 17 17 20
49 33 60 65 62 62 61 58 56 53 51 48 37 27 27 34 22 38 32 28 25 22 19 14 11 12 14 15 13 11 11 10 11 12 13 13 12 7 5 7 12 16 16 16 15 15 18
37 66 62 64 60 58 57 56 54 51 51 46 36 30 24 24 32 25 34 29 28 26 22 16 14 14 13 17 14 8 7 7 7 6 17 15 14 12 7 4 4 5 9 12 15 11 5
64 57 54 55 56 55 55 55 52 49 49 45 37 29 24 26 19 30 31 33 29 27 24 20 17 16 16 19 17 9 8 10 5 6 6 11 13 16 15 9 7 12 13 11 3 4 14
52 55 52 51 52 52 52 52 49 47 45 43 35 28 24 21 16 23 28 33 31 28 26 23 21 20 19 17 13 11 9 12 10 10 7 7 6 7 7 6 5 1 4 6 11 19 18
48 47 46 46 47 48 49 49 47 45 43 38 32 29 23 19 16 17 26 27 32 29 26 22 24 16 19 16 13 8 10 9 12 6 9 9 11 8 7 4 11 16 13 16 21 23 22

GFSGBSN_700_spd_039.txt.gz
Wind_Speed
41 39 39 38 37 35 32 31 29 28 26 25 24 23 23 23 23 24 25 25 24 25 20 16 11 10 12 11 10 10 7 2 4 3 3 8 8 8 8 10 10 15 6 8 4 12 8
40 41 40 39 38 37 35 32 31 28 27 26 24 23 23 23 21 23 24 24 24 22 16 12 9 11 12 11 12 7 4 3 2 3 4 9 7 8 7 8 12 11 9 6 8 8 14
36 39 40 40 39 38 36 35 33 29 28 26 24 23 23 23 21 22 22 23 23 18 13 11 9 11 13 12 11 8 5 2 4 4 8 9 11 7 3 5 10 7 9 7 8 10 12
34 36 37 39 40 39 37 36 35 31 29 27 25 23 23 23 21 21 22 22 21 15 11 10 10 11 10 14 11 11 7 3 3 5 7 10 10 11 8 8 6 8 8 14 7 12 10
34 34 34 36 38 38 39 37 35 33 30 28 26 24 24 22 20 20 20 20 18 13 11 11 12 10 9 13 14 9 7 4 4 4 6 7 9 10 7 6 10 13 12 13 12 12 11
37 35 35 35 35 36 38 38 35 35 32 29 26 24 23 21 19 19 20 17 15 11 11 12 13 8 10 8 12 10 7 6 5 3 3 5 7 7 9 14 15 14 14 15 13 14 14
42 39 36 37 36 34 37 39 36 35 33 29 26 24 24 21 18 17 17 14 10 11 14 13 6 12 10 10 18 12 8 4 7 4 7 3 6 14 16 15 8 5 8 13 14 12 14
47 44 41 38 37 36 33 39 37 35 34 30 28 25 23 20 18 17 14 11 12 13 11 15 14 16 13 14 14 13 11 7 14 9 7 12 11 11 13 9 5 7 8 9 9 11 13
52 49 46 43 40 38 33 35 38 36 35 32 29 26 23 20 18 15 12 11 12 10 8 10 15 16 12 14 17 15 14 10 12 14 8 12 6 10 10 6 6 7 6 5 7 13 12
58 55 51 47 43 39 37 34 40 36 36 34 31 27 24 21 16 13 11 13 13 8 5 12 21 18 14 14 17 17 16 12 8 14 8 10 9 8 7 8 8 12 7 4 3 14 21
64 60 56 51 46 41 39 35 42 39 38 36 33 28 25 21 16 15 20 17 13 10 5 11 18 13 11 13 6 21 18 13 11 15 12 4 6 8 9 4 10 3 4 5 9 15 10
68 64 60 55 51 45 42 38 43 43 39 38 35 30 28 22 19 22 23 20 15 7 11 12 20 18 15 14 12 13 24 15 10 8 14 10 7 7 4 10 6 6 2 5 8 12 11
70 67 64 60 55 50 46 44 46 48 42 41 37 34 28 25 23 28 26 22 11 12 8 14 21 20 18 14 14 15 22 20 17 14 16 12 10 10 7 5 5 6 9 13 7 5 9
69 68 66 61 57 53 49 49 48 50 43 43 39 36 31 28 30 33 30 24 13 13 16 8 20 19 19 15 15 15 19 23 22 19 17 17 10 13 10 11 6 9 12 9 6 7 7
61 64 66 63 61 57 54 54 50 53 43 45 42 40 37 31 36 38 33 28 19 11 18 13 17 22 20 17 13 16 19 23 20 21 13 20 7 12 10 7 6 7 8 5 6 7 8
57 51 58 68 67 63 59 59 53 52 49 47 45 41 35 36 43 40 35 31 24 15 15 15 21 23 23 19 16 18 18 20 18 19 16 6 4 7 8 7 9 9 4 4 7 3 7
47 58 58 52 55 71 68 62 57 51 51 47 46 41 37 42 48 44 37 32 22 16 15 17 21 18 21 19 19 19 18 13 17 17 19 14 13 5 6 10 13 7 11 9 6 5 4
46 44 58 57 57 52 61 61 62 52 53 51 48 36 44 49 52 48 35 29 20 17 15 16 18 17 19 19 19 17 20 17 17 15 15 15 11 13 12 11 13 11 11 12 10 8 7
52 40 48 55 54 49 48 59 70 55 57 56 49 35 33 51 51 40 30 28 26 19 18 19 18 19 18 18 16 17 17 19 14 20 16 13 12 15 12 11 14 13 13 13 13 9 12
46 42 43 47 50 52 45 69 65 52 60 56 44 35 38 60 45 36 35 30 28 20 18 19 18 18 16 18 18 15 15 18 20 18 20 15 16 15 17 13 5 12 14 15 17 14 16
46 43 40 43 48 45 42 74 71 56 61 54 44 42 48 56 54 41 34 30 29 23 18 21 20 19 18 17 17 13 15 14 17 16 17 15 13 15 19 13 10 11 12 13 19 23 23
49 39 41 41 43 40 41 67 58 58 60 59 46 43 36 40 45 31 34 32 31 24 21 23 20 21 18 14 15 14 16 13 15 19 18 18 12 13 12 14 14 17 19 19 19 21 23
45 44 42 44 45 46 45 64 61 72 66 63 40 39 39 31 52 32 32 32 31 23 22 21 22 22 19 16 16 11 14 13 11 13 16 11 12 10 10 8 8 14 21 23 23 22 21
45 43 43 42 42 45 44 55 72 75 71 53 32 38 45 37 53 41 30 29 29 22 20 22 18 19 22 19 15 13 12 14 12 13 13 15 12 11 7 4 2 11 13 14 12 15 18
43 38 36 39 39 46 56 70 74 68 67 43 31 36 35 35 46 35 33 28 25 24 17 25 24 19 17 16 15 12 11 12 14 15 16 15 13 8 5 9 12 14 12 12 7 5 6
38 33 35 40 38 66 67 76 73 70 60 33 40 34 29 36 41 36 30 30 26 25 20 19 19 16 15 18 16 10 8 10 7 5 16 15 15 11 8 4 4 3 8 9 8 6 3
35 28 34 47 41 60 73 61 67 68 46 45 34 28 22 36 25 37 32 28 26 21 20 22 15 14 14 17 18 9 9 9 7 8 8 15 16 15 11 7 7 10 13 10 5 4 9
39 35 35 44 72 61 65 66 66 62 44 42 36 28 26 29 30 30 31 27 29 25 23 23 20 19 18 17 14 10 9 11 8 7 7 7 8 9 9 7 6 7 2 1 7 16 21
38 46 69 56 51 64 66 64 65 57 43 40 32 29 25 28 24 24 30 29 33 27 23 22 17 17 19 13 15 12 10 10 13 6 12 6 9 5 7 3 10 8 14 15 19 22 23

GFSGBSN_700_spd_042.txt.gz
Wind_Speed
38 40 39 39 37 36 35 32 30 29 28 28 26 25 24 21 22 23 22 23 22 21 23 23 19 13 10 10 9 15 11 5 2 3 5 4 6 7 9 9 12 14 13 12 9 7 4
31 34 38 39 38 37 35 34 32 31 29 28 27 26 24 22 21 23 21 22 21 20 22 19 16 12 11 10 3 12 5 1 0 1 5 5 5 6 11 10 11 10 14 5 6 8 8
31 30 31 34 38 38 37 35 34 32 31 29 28 26 23 22 21 22 21 21 19 20 20 16 14 12 11 8 10 5 4 1 3 3 5 4 8 7 2 4 10 9 8 9 6 5 11
34 32 31 30 31 34 35 37 35 34 32 30 28 26 25 23 21 21 20 20 19 19 17 14 12 11 8 9 9 9 6 2 6 5 7 7 11 13 11 4 6 7 7 6 4 6 8
37 36 33 31 29 29 30 35 36 35 34 31 29 27 25 22 21 20 20 18 18 17 14 12 10 11 5 9 7 8 6 6 9 4 3 7 8 9 7 8 7 4 8 11 10 12 8
40 39 37 35 32 29 27 29 33 36 34 32 30 27 25 22 20 20 18 16 16 14 12 10 9 6 7 2 5 4 8 10 5 3 3 5 6 6 8 10 8 11 18 17 12 12 11
45 43 41 38 36 33 29 27 29 36 35 33 31 28 25 22 20 19 17 14 10 12 12 10 3 10 6 5 11 14 8 8 6 8 6 3 6 9 7 12 11 8 15 14 13 13 12
50 47 44 42 39 36 35 30 28 33 35 34 32 29 25 22 20 18 15 11 5 14 17 11 19 21 17 13 8 13 11 10 10 11 13 10 9 7 8 16 16 13 8 6 14 10 13
55 52 49 46 43 40 37 36 29 30 33 34 33 29 25 22 20 17 14 11 15 12 15 8 15 15 14 9 14 14 13 13 12 13 6 15 10 8 12 12 10 8 12 9 4 8 11
62 58 54 51 47 45 42 38 35 30 33 36 35 30 25 23 20 15 10 12 8 6 7 10 16 16 18 12 16 16 17 13 8 12 10 12 12 12 13 12 7 6 6 8 12 16 12
66 63 60 56 52 49 45 41 39 32 33 37 37 31 25 26 20 14 11 10 9 5 4 6 16 9 17 18 3 18 14 16 10 7 8 3 18 12 14 6 6 3 11 9 16 12 10
71 69 65 61 56 53 49 44 40 39 35 39 38 32 30 26 19 17 16 17 14 6 8 7 14 18 18 18 13 10 20 18 11 14 12 11 8 11 9 6 4 3 4 10 11 15 12
77 73 69 65 61 58 53 47 43 43 38 42 38 34 30 28 21 20 17 21 11 12 10 12 19 18 21 18 17 12 18 20 17 10 10 9 13 7 5 4 6 6 11 6 10 11 4
78 78 74 71 66 62 58 52 48 45 42 44 39 37 33 31 30 26 28 25 14 9 18 3 16 16 23 19 17 17 16 22 21 20 13 17 13 15 10 11 5 10 13 3 2 5 8
75 77 75 73 70 66 62 57 52 49 45 46 39 40 40 34 29 30 33 32 21 15 19 12 13 21 23 21 13 17 19 21 22 22 21 9 4 5 0 8 4 6 5 0 10 3 5
66 73 76 75 73 70 66 62 57 53 49 49 44 41 40 36 34 36 38 37 22 19 5 17 19 22 22 21 19 16 17 18 22 20 20 14 8 15 11 12 9 9 7 5 4 2 4
47 47 53 75 73 73 71 67 61 57 51 50 40 42 40 39 37 42 49 35 24 23 12 11 19 19 23 21 19 16 16 14 20 14 13 11 19 11 8 9 10 7 9 10 9 7 1
50 54 51 51 62 64 71 70 66 62 53 51 45 46 43 44 45 50 48 33 28 22 18 17 15 20 19 21 18 18 17 18 18 16 11 17 12 8 12 7 8 10 9 10 11 8 5
51 55 54 55 55 52 52 57 71 66 57 55 49 40 32 42 51 48 40 36 31 25 18 20 19 19 17 20 18 18 14 11 15 15 13 13 11 12 14 9 8 16 14 14 13 9 11
53 53 52 55 53 56 53 47 59 61 66 54 48 39 36 43 52 46 41 34 32 28 21 20 19 18 16 20 18 15 15 15 14 14 19 17 11 14 12 15 8 9 11 14 15 12 14
50 51 49 53 46 48 54 50 50 63 70 53 54 52 51 50 59 42 37 32 31 31 27 21 21 22 20 18 18 17 17 14 17 19 21 19 16 16 18 18 13 12 12 10 14 17 20
45 49 49 56 40 47 53 55 50 73 68 51 58 47 51 24 46 43 41 42 36 32 27 24 23 22 22 18 18 17 14 16 13 17 17 18 13 13 13 11 15 16 18 20 21 20 20
41 44 39 41 42 46 46 49 50 80 71 63 62 54 34 50 34 47 49 42 35 30 28 24 25 20 22 17 18 15 16 16 8 12 20 13 15 8 8 9 10 13 20 18 21 19 19
40 39 37 34 40 43 44 56 55 71 61 71 67 50 30 37 40 62 45 38 33 33 28 25 24 24 22 23 17 14 11 13 14 12 11 13 12 11 6 5 1 12 7 11 12 11 9
42 43 38 36 37 40 46 55 44 55 61 72 61 40 33 40 44 46 38 38 28 32 40 24 28 28 28 23 16 13 12 13 14 15 15 11 12 11 7 11 11 16 7 6 6 1 3
40 41 39 36 41 42 44 50 61 63 73 74 49 39 26 41 49 52 43 42 38 35 46 28 33 28 22 20 16 10 9 10 9 6 14 15 14 13 9 4 4 3 8 7 6 5 4
38 38 38 38 40 42 48 50 51 72 70 64 47 39 44 42 41 52 44 39 38 33 23 35 35 27 24 22 17 11 10 10 11 10 9 13 17 16 12 6 6 8 11 13 5 4 10
37 37 37 37 40 40 48 48 60 71 77 65 46 49 23 36 39 45 39 35 30 26 23 32 31 25 21 15 15 10 9 14 9 8 9 7 10 12 12 6 7 11 7 4 11 10 14
39 37 35 37 37 42 42 52 69 78 66 39 32 39 16 32 48 50 42 37 33 30 25 24 17 18 14 13 12 13 11 14 15 7 11 7 8 5 7 2 8 8 10 8 14 18 19

GFSGBSN_700_spd_045.txt.gz
Wind_Speed
28 30 33 36 37 37 36 37 35 33 32 29 28 27 25 23 21 21 20 21 21 21 20 20 21 18 14 8 7 15 9 8 4 3 6 5 6 4 3 6 13 13 15 12 5 0 2
27 26 26 29 32 35 35 36 36 35 34 31 29 28 26 23 21 21 20 21 20 21 19 19 20 16 13 6 9 10 3 2 3 2 3 10 5 1 14 14 10 12 15 10 5 5 10
30 28 27 26 25 28 30 33 36 36 35 33 31 30 27 24 21 20 20 20 20 20 18 18 17 15 11 6 10 9 2 3 0 1 4 11 4 9 5 9 6 4 7 8 6 8 7
33 32 30 28 25 25 25 27 31 35 35 34 33 31 28 24 22 20 20 20 20 18 17 17 15 13 6 8 11 10 6 5 9 11 5 4 6 13 12 9 3 4 6 2 4 7 9
37 35 34 32 30 27 25 23 24 30 33 35 33 32 29 25 22 20 19 19 20 17 16 14 13 10 7 6 5 6 6 7 7 8 12 6 7 9 10 5 5 3 6 7 9 7 6
43 40 37 36 34 32 28 25 23 24 28 33 34 32 29 25 22 19 17 19 19 17 15 11 11 5 2 7 1 9 4 1 4 7 5 7 7 2 3 7 11 5 8 9 14 12 16
48 45 42 39 37 35 33 30 25 23 24 29 32 32 29 25 22 18 17 17 18 14 13 11 10 12 15 6 6 10 7 6 7 6 6 4 8 5 6 11 5 4 8 7 16 9 12
54 51 48 45 41 38 36 34 31 25 24 25 29 31 28 24 21 17 17 14 20 22 18 13 17 18 20 16 14 11 14 12 6 11 9 8 7 5 9 8 16 16 18 20 21 16 14
60 57 53 50 46 42 38 36 34 31 26 25 27 29 28 23 19 17 17 12 17 19 21 11 14 16 21 12 11 18 13 12 9 16 8 10 16 6 14 10 15 10 11 6 6 5 6
65 61 59 54 51 47 42 38 36 35 30 26 26 29 28 24 20 17 17 11 13 12 12 11 12 14 24 15 12 19 16 12 11 11 12 6 13 16 19 14 13 13 7 2 1 1 7
70 66 64 59 55 51 46 42 39 37 34 29 27 29 28 26 19 19 16 14 9 6 4 1 10 4 17 19 2 19 19 20 16 10 12 11 9 20 19 18 6 5 7 8 12 17 22
75 72 68 65 60 55 51 48 43 39 37 33 30 30 31 26 18 16 14 13 13 5 8 9 10 14 15 17 12 16 10 15 16 8 12 11 9 5 8 8 8 5 3 9 9 5 4
80 76 73 69 66 62 57 53 48 43 39 36 33 32 32 28 21 23 20 18 12 8 6 12 16 16 19 14 17 13 19 20 22 12 8 11 15 6 8 9 7 6 8 2 4 7 6
83 79 77 73 69 66 61 57 52 47 42 39 35 34 33 28 29 25 25 24 13 8 16 5 20 15 21 20 15 13 16 23 20 19 16 13 9 5 5 8 8 8 6 4 4 2 7
54 75 77 76 73 69 65 61 56 52 47 42 39 38 40 31 30 27 31 32 16 16 21 7 16 18 18 18 19 17 19 21 18 22 23 9 15 14 9 5 8 8 2 7 4 6 3
55 49 67 75 75 72 69 66 61 56 51 47 46 42 44 34 33 34 38 41 27 23 13 16 16 20 19 20 22 23 22 19 23 24 19 20 9 11 9 21 9 7 7 6 4 3 3
63 57 51 68 73 74 71 69 65 59 55 51 47 45 43 38 37 40 52 43 29 30 17 6 14 16 20 22 22 25 18 18 17 21 26 17 10 5 9 19 12 13 12 9 9 4 4
64 62 54 51 68 72 72 70 67 64 58 54 49 48 38 43 45 52 58 51 29 35 23 19 11 17 19 22 24 25 19 19 15 20 15 8 8 6 11 12 9 12 8 6 13 6 3
60 57 53 50 45 47 54 70 69 67 63 57 49 46 21 45 52 57 53 51 44 36 29 19 15 18 23 17 18 23 20 18 15 22 14 11 9 7 6 9 11 13 14 19 14 6 13
54 57 51 50 49 47 46 46 54 58 65 57 46 42 41 46 56 54 58 50 49 41 29 21 13 22 19 16 18 15 24 19 18 21 19 16 10 8 9 6 9 10 11 10 14 16 13
65 57 53 52 47 49 50 55 52 50 55 56 53 48 53 53 62 55 42 47 45 45 36 24 19 25 19 19 21 14 24 14 17 17 17 19 20 15 13 11 17 8 11 8 12 16 19
55 53 55 45 45 53 52 56 56 53 56 67 52 49 48 35 51 51 45 46 48 47 38 30 26 24 22 22 24 20 18 18 19 14 16 18 17 18 14 15 16 15 13 19 22 17 17
45 52 51 41 48 50 54 62 61 56 67 73 56 51 53 48 24 53 64 50 53 41 41 27 25 21 24 22 21 22 22 19 19 18 17 18 18 15 13 15 17 17 23 22 18 17 17
43 48 47 44 45 51 56 60 60 58 69 77 64 57 44 49 40 45 57 49 44 44 35 28 26 25 26 25 23 23 17 21 16 14 12 19 14 13 9 11 0 17 8 9 6 5 5
39 42 42 44 45 49 53 53 58 54 68 78 71 54 35 46 56 37 45 56 44 43 36 31 33 29 26 29 27 24 19 17 15 17 15 18 20 11 8 14 11 13 10 11 9 5 7
35 35 35 36 35 40 47 53 59 55 72 78 65 59 29 33 52 54 38 48 47 46 38 36 32 34 28 29 27 16 12 11 10 15 21 22 20 18 12 5 6 6 9 10 9 8 9
30 36 35 34 36 45 51 49 50 50 76 72 62 68 34 20 32 39 53 50 47 49 42 37 37 36 33 32 27 17 11 15 13 19 17 20 20 21 18 10 7 10 11 11 9 7 13
36 41 37 36 31 40 42 44 50 48 76 74 71 49 37 19 32 35 37 46 53 47 41 37 38 38 29 30 25 11 11 19 12 19 17 14 15 16 13 10 9 13 14 12 12 16 15
39 41 38 34 33 37 43 49 55 48 69 72 61 66 31 24 24 33 42 50 53 47 39 34 40 43 18 25 16 19 15 23 19 13 11 12 11 10 8 5 8 12 15 14 12 14 15

GFSGBSN_700_spd_048.txt.gz
Wind_Speed
26 26 29 30 32 34 35 36 35 36 36 34 32 30 28 26 25 24 21 21 21 21 22 22 19 18 16 11 9 11 8 4 3 2 3 5 5 5 4 11 14 13 13 6 2 8 9
27 26 26 25 25 27 29 33 35 35 35 34 32 31 29 27 26 24 21 21 20 20 22 20 19 17 13 9 10 10 9 2 3 6 0 11 7 2 7 9 10 9 5 8 10 10 6
31 29 27 27 24 24 23 24 28 32 33 34 33 31 30 29 27 24 22 20 20 20 22 19 19 16 11 7 11 7 6 3 8 7 10 8 2 6 10 11 8 1 2 4 8 8 8
37 33 31 29 27 25 24 22 21 24 27 32 33 32 30 30 28 25 22 20 20 20 21 18 18 14 8 9 10 3 4 8 9 9 4 4 8 6 10 11 7 2 5 6 10 7 7
43 39 36 33 31 28 26 24 23 20 21 25 30 31 31 30 28 24 22 20 20 21 21 18 16 12 5 3 3 6 8 6 6 6 8 5 6 7 6 7 4 1 2 8 4 8 2
48 45 42 38 35 32 30 27 25 22 20 22 24 29 30 30 27 23 21 19 21 21 20 18 17 9 7 11 11 8 12 8 4 4 4 3 6 3 3 5 2 3 5 5 5 9 12
54 51 48 44 40 36 33 30 28 26 23 21 21 22 27 28 26 23 19 19 21 21 20 14 16 10 15 14 14 15 9 7 5 7 2 4 3 3 8 7 6 3 3 9 13 15 17
59 57 54 49 44 41 38 34 31 29 26 23 21 19 21 24 24 21 17 18 21 21 21 16 18 15 21 17 15 17 15 11 9 9 5 3 6 3 6 2 6 13 9 16 19 10 16
64 61 59 55 51 46 42 38 34 32 29 26 23 20 18 21 23 19 17 19 23 18 21 14 20 15 24 18 11 15 21 14 11 11 10 7 9 13 9 10 8 12 15 13 12 5 8
70 67 63 60 57 52 47 42 38 35 32 29 26 22 19 20 20 18 19 19 16 13 12 13 13 13 29 21 18 26 23 17 14 15 14 12 8 10 11 12 9 16 15 14 8 1 2
76 73 68 64 61 57 52 47 42 39 35 31 27 24 20 20 17 20 20 17 14 10 3 3 10 6 22 23 6 27 21 18 15 12 11 14 8 10 13 19 11 12 6 11 11 5 11
80 78 74 70 65 61 56 53 47 42 39 35 30 26 24 18 17 21 19 16 13 7 8 9 12 11 22 24 13 26 22 18 15 19 11 9 5 2 11 15 12 15 10 12 9 9 3
76 71 79 75 70 65 61 57 52 47 43 39 34 30 25 20 22 24 22 18 12 8 8 13 16 12 17 21 19 21 25 19 17 14 10 8 6 6 6 7 9 8 7 1 1 1 6
67 63 70 78 76 70 66 61 56 51 47 42 37 33 29 22 30 27 25 23 14 8 17 6 18 11 17 22 23 20 18 20 21 20 14 12 7 10 10 4 4 12 7 4 4 3 4
70 65 57 69 76 75 70 66 61 56 50 45 41 38 35 25 33 31 33 31 19 14 21 13 21 20 19 21 16 18 18 16 20 20 23 11 10 9 9 11 5 4 5 1 2 4 2
56 65 58 59 61 75 74 70 66 62 56 51 46 42 39 30 38 36 40 42 27 28 13 15 22 23 22 23 25 21 18 16 20 21 25 21 11 14 15 13 18 9 5 4 4 2 3
42 66 55 61 59 64 75 72 69 65 61 55 49 46 41 37 42 42 53 50 41 33 24 10 16 20 21 20 23 25 16 19 19 18 23 26 18 10 13 14 21 12 13 11 11 7 4
44 68 65 57 61 48 68 71 70 67 64 58 53 50 43 45 45 51 58 51 29 39 32 20 15 10 10 23 21 24 24 21 19 20 23 22 20 14 13 5 21 19 17 17 11 6 5
46 73 64 54 56 54 45 63 69 63 67 63 57 46 30 49 53 58 53 45 45 41 42 32 21 9 11 17 27 22 24 24 22 22 25 21 10 8 7 13 18 18 16 19 16 14 14
47 62 81 57 56 57 50 54 56 54 53 64 54 38 36 51 58 54 58 51 49 45 44 38 30 21 18 15 13 17 22 23 22 17 25 23 21 15 18 15 14 11 13 13 11 8 13
47 58 68 75 61 57 50 50 49 54 51 54 50 43 55 59 65 62 49 47 39 47 50 37 33 28 18 13 20 13 17 26 24 22 27 25 20 16 12 13 11 8 8 10 13 10 5
51 56 55 54 57 53 50 46 52 61 56 53 57 45 53 51 61 60 53 57 50 50 45 47 39 28 18 19 18 12 16 24 25 25 22 20 18 20 21 21 20 18 15 15 16 16 19
53 54 55 52 50 48 40 58 57 66 60 61 58 48 46 59 39 56 69 59 55 46 50 43 34 27 23 22 17 15 16 16 22 23 23 21 21 23 20 20 17 19 24 23 21 22 22
58 57 54 48 48 45 51 62 53 70 61 61 62 51 47 45 50 54 55 63 51 48 47 40 36 31 24 14 20 22 18 17 19 21 17 15 20 19 10 12 1 13 16 13 15 11 10
51 53 52 51 50 47 63 50 60 70 64 60 59 59 44 49 48 51 34 42 46 46 43 42 41 31 25 22 21 20 20 19 26 23 20 19 19 11 8 16 8 8 10 13 14 13 13
40 46 46 40 48 47 47 57 62 69 62 62 61 55 39 45 52 39 45 34 45 46 42 43 43 31 26 29 29 23 18 20 19 21 22 19 19 22 12 6 7 15 18 24 18 16 17
33 36 43 50 42 40 44 51 65 65 64 62 69 59 46 30 30 36 47 33 26 41 45 44 46 39 33 35 29 21 22 22 19 26 23 25 25 24 23 14 12 15 11 14 17 15 20
35 40 42 40 39 38 40 48 70 65 60 60 73 54 52 36 29 29 31 41 31 39 49 47 43 41 38 33 34 19 14 26 24 23 26 26 25 21 20 14 13 17 21 24 18 18 17
31 32 34 35 36 33 37 40 59 58 57 59 75 63 42 29 33 30 35 39 45 42 47 45 45 37 29 34 24 26 21 22 23 21 22 20 22 21 17 12 14 13 20 20 20 15 11

GFSGBSN_700_spd_051.txt.gz
Wind_Speed
32 30 31 29 32 33 33 34 36 37 36 35 34 32 31 29 28 26 27 26 25 23 22 22 21 19 17 14 10 9 8 7 3 2 3 5 4 1 1 4 2 5 9 7 4 2 5
34 32 30 30 28 28 29 29 32 35 36 37 35 33 32 30 28 27 27 26 25 23 22 21 21 18 17 14 11 7 4 6 1 4 4 11 4 3 4 3 5 7 6 3 3 5 5
38 36 34 32 30 27 26 26 27 30 33 35 33 33 33 31 29 28 28 26 24 23 22 21 20 17 16 12 11 5 4 4 5 11 11 4 2 2 8 4 5 7 2 4 7 3 8
43 41 38 35 33 31 27 25 26 24 26 27 29 31 32 32 30 29 28 27 24 23 23 20 20 17 13 11 4 4 4 10 10 9 8 5 8 8 10 7 4 5 3 8 8 8 6
49 46 44 41 37 34 31 28 27 25 22 22 22 24 29 29 29 29 28 27 24 24 23 19 19 16 10 8 8 10 11 11 10 5 2 10 11 7 6 7 5 3 6 8 9 8 8
53 51 49 46 43 39 35 32 30 27 23 20 20 19 23 23 26 27 27 26 24 25 23 19 18 16 11 12 12 12 21 13 8 5 3 0 3 4 1 3 2 9 6 3 3 2 13
58 56 54 51 48 45 41 37 33 30 27 23 20 17 18 17 22 23 25 24 25 26 24 19 16 13 9 13 13 16 19 13 8 5 4 2 0 1 1 3 2 6 7 6 3 8 21
65 61 59 57 53 50 46 42 37 33 30 27 22 18 15 16 18 20 22 24 26 27 25 20 18 19 16 19 17 22 20 17 14 10 7 4 3 4 2 1 1 3 9 3 12 14 14
72 69 64 61 58 55 50 46 42 38 33 29 25 21 19 15 17 18 21 26 22 20 23 20 20 21 19 24 21 24 21 18 14 10 6 5 4 8 9 8 11 12 12 15 16 13 3
76 75 72 66 63 60 56 50 46 42 37 32 28 24 21 18 17 16 22 22 17 15 14 15 12 15 23 28 22 24 25 20 17 13 8 10 10 6 9 15 12 13 8 14 18 13 6
59 76 77 74 69 63 60 56 50 46 41 36 32 27 23 21 17 18 20 18 13 10 4 4 10 13 20 27 12 23 27 24 20 13 11 6 7 8 10 12 12 16 18 13 13 10 8
51 52 73 78 75 69 64 60 56 51 46 41 35 30 27 23 19 19 20 16 12 8 8 6 12 13 23 30 13 21 30 26 17 15 13 9 8 8 4 10 12 13 14 12 9 7 2
53 51 51 71 77 75 69 64 60 55 50 44 39 34 30 25 21 24 20 19 12 10 8 12 16 14 20 26 21 26 31 28 22 13 16 11 9 6 5 8 11 9 2 3 3 2 5
56 54 49 51 71 76 74 68 64 59 54 47 42 39 33 28 25 29 26 26 15 9 17 10 20 16 17 24 27 25 28 28 24 17 14 14 5 13 11 9 6 5 3 4 4 2 4
57 55 50 48 61 66 73 72 67 62 57 51 46 43 40 32 30 34 34 37 18 14 18 11 19 20 20 23 25 26 26 29 27 25 21 12 9 13 13 8 4 2 6 8 4 1 1
58 56 52 49 44 63 57 70 70 65 61 55 52 47 41 32 35 38 42 40 32 29 10 24 15 21 22 24 23 26 25 28 25 23 25 18 8 13 15 13 12 12 12 6 6 3 2
60 56 55 48 41 63 60 53 67 67 63 59 54 49 44 38 40 42 56 44 36 28 20 15 17 20 23 22 31 26 19 22 21 20 22 19 22 15 15 19 19 19 16 13 9 4 4
58 58 54 50 43 61 65 56 48 62 63 59 56 54 48 44 46 51 60 44 37 38 32 24 18 17 24 25 24 31 28 19 20 21 23 24 14 18 24 22 21 20 22 16 7 6 7
56 57 53 50 44 67 61 54 54 44 56 59 57 50 38 48 56 57 54 54 44 34 45 34 25 16 15 17 27 25 30 26 22 18 23 21 19 17 15 19 19 19 23 21 19 19 16
52 55 52 49 43 68 63 60 57 49 49 54 54 38 38 52 60 55 56 44 54 46 35 41 37 19 16 15 14 24 27 27 25 25 22 21 23 20 20 19 16 21 21 19 18 20 19
53 53 53 49 42 63 56 57 56 54 55 57 51 45 55 58 67 63 49 48 44 51 53 36 42 39 24 14 14 13 20 27 27 24 20 22 27 23 22 19 17 18 21 16 17 21 18
51 52 53 51 49 56 56 58 52 51 60 59 63 47 50 60 65 63 47 53 45 52 43 51 47 37 36 26 13 12 13 20 24 28 20 31 19 23 21 20 20 21 19 18 17 17 19
48 50 51 48 55 62 55 54 55 60 66 60 61 42 50 60 48 62 71 57 52 42 46 40 29 41 29 25 15 15 13 15 22 22 25 32 28 17 17 18 19 19 30 29 27 27 27
42 49 49 44 65 64 61 50 56 60 69 53 62 49 45 47 57 61 57 60 53 51 48 39 34 33 37 23 21 19 18 16 20 23 24 27 27 21 15 15 3 28 27 25 28 32 34
44 50 43 49 57 66 56 44 51 46 71 46 54 57 40 41 41 50 47 44 50 50 46 42 35 34 30 29 21 15 18 21 25 24 25 26 21 16 10 16 18 10 17 19 21 19 17
47 42 45 48 46 54 71 57 49 49 69 53 49 62 43 35 41 43 44 42 42 43 40 44 36 31 28 22 29 25 19 18 18 25 26 24 22 23 14 7 7 19 24 19 15 18 19
39 42 46 46 43 46 48 47 49 45 72 64 42 63 50 34 25 32 42 34 27 22 33 36 41 35 33 29 31 30 28 22 24 27 21 25 25 27 23 15 15 18 15 14 20 25 24
36 40 45 46 46 47 47 48 44 59 76 63 46 61 61 31 35 28 35 34 40 38 31 26 33 42 40 37 29 24 17 26 28 27 30 32 28 27 26 19 15 17 20 24 22 21 14
37 41 43 45 41 41 44 47 48 65 47 59 48 61 63 42 22 39 38 35 30 27 34 31 35 27 37 39 32 30 24 21 28 28 29 31 33 30 23 21 18 11 14 23 27 19 14